GFSCGP_prec_precacc12_117.txt.gz
Total_Precipitation_Accumulation
0.00 0.00 0.00 0.00 0.00 0.00 0.00 0.00 0.00 0.00 0.00 0.00 0.00 0.00 0.00 0.00 0.00 0.00 0.00 0.00 0.00 0.00 0.00 0.00 0.00 0.00 0.00 0.00 0.00 0.00 0.00 0.00 0.00 0.00 0.01 0.01 0.00 0.00 0.00 0.00 0.00 0.00 0.00 0.00
0.00 0.00 0.00 0.00 0.00 0.00 0.00 0.00 0.00 0.00 0.00 0.00 0.01 0.00 0.00 0.00 0.00 0.00 0.00 0.00 0.00 0.00 0.00 0.00 0.00 0.00 0.00 0.00 0.00 0.00 0.00 0.00 0.00 0.00 0.01 0.05 0.03 0.03 0.06 0.04 0.00 0.00 0.00 0.00
0.00 0.00 0.00 0.00 0.00 0.00 0.00 0.00 0.00 0.00 0.00 0.00 0.03 0.01 0.00 0.00 0.00 0.00 0.00 0.00 0.00 0.00 0.00 0.00 0.00 0.00 0.00 0.00 0.00 0.00 0.00 0.00 0.00 0.00 0.06 0.09 0.10 0.14 0.14 0.04 0.00 0.00 0.00 0.00
0.01 0.00 0.00 0.00 0.00 0.01 0.00 0.00 0.00 0.00 0.01 0.04 0.06 0.04 0.00 0.00 0.00 0.00 0.00 0.00 0.00 0.00 0.00 0.00 0.00 0.00 0.00 0.00 0.00 0.00 0.00 0.00 0.01 0.03 0.01 0.02 0.01 0.00 0.00 0.00 0.00 0.00 0.00 0.00
0.04 0.01 0.01 0.01 0.00 0.02 0.01 0.01 0.00 0.01 0.04 0.02 0.03 0.06 0.00 0.00 0.01 0.01 0.00 0.00 0.00 0.00 0.00 0.00 0.00 0.00 0.00 0.00 0.00 0.00 0.03 0.12 0.12 0.10 0.07 0.06 0.08 0.06 0.02 0.00 0.00 0.00 0.01 0.00
0.00 0.01 0.01 0.00 0.00 0.01 0.01 0.01 0.03 0.06 0.06 0.05 0.00 0.01 0.03 0.09 0.06 0.03 0.01 0.00 0.00 0.00 0.00 0.00 0.00 0.00 0.00 0.00 0.00 0.00 0.00 0.04 0.16 0.16 0.18 0.18 0.15 0.11 0.10 0.04 0.03 0.02 0.04 0.02
0.03 0.05 0.01 0.01 0.00 0.01 0.02 0.05 0.08 0.08 0.09 0.02 0.01 0.02 0.05 0.12 0.12 0.03 0.01 0.01 0.00 0.00 0.00 0.00 0.00 0.00 0.00 0.00 0.00 0.00 0.00 0.00 0.03 0.04 0.06 0.04 0.05 0.06 0.04 0.06 0.06 0.05 0.04 0.01
0.08 0.09 0.05 0.00 0.00 0.01 0.01 0.02 0.06 0.05 0.02 0.01 0.02 0.03 0.18 0.11 0.44 0.14 0.08 0.02 0.00 0.00 0.00 0.00 0.00 0.00 0.00 0.00 0.00 0.00 0.00 0.00 0.00 0.01 0.01 0.00 0.02 0.05 0.03 0.01 0.02 0.01 0.01 0.02
0.19 0.15 0.05 0.01 0.04 0.08 0.06 0.02 0.01 0.06 0.10 0.11 0.03 0.17 0.28 0.26 0.43 0.75 0.25 0.08 0.04 0.02 0.01 0.00 0.00 0.00 0.00 0.00 0.00 0.00 0.00 0.00 0.00 0.00 0.00 0.01 0.04 0.06 0.04 0.03 0.02 0.02 0.02 0.02
0.16 0.37 0.15 0.04 0.06 0.06 0.08 0.05 0.08 0.13 0.19 0.25 0.08 0.19 0.44 0.59 0.90 0.52 0.34 0.22 0.08 0.04 0.01 0.00 0.00 0.00 0.00 0.00 0.00 0.00 0.00 0.00 0.00 0.00 0.00 0.04 0.05 0.03 0.08 0.06 0.01 0.01 0.04 0.05
0.18 0.40 0.28 0.12 0.13 0.13 0.17 0.09 0.08 0.06 0.14 0.33 0.53 0.77 1.06 1.33 1.41 1.19 0.41 0.18 0.06 0.02 0.00 0.00 0.00 0.00 0.00 0.00 0.01 0.02 0.02 0.02 0.02 0.03 0.08 0.10 0.07 0.10 0.15 0.10 0.06 0.06 0.09 0.10
0.08 0.71 0.54 0.20 0.11 0.16 0.20 0.12 0.05 0.11 0.18 0.24 0.83 1.37 1.59 1.33 0.99 0.56 0.51 0.37 0.17 0.05 0.00 0.00 0.00 0.00 0.00 0.00 0.04 0.07 0.05 0.07 0.09 0.11 0.18 0.18 0.22 0.30 0.26 0.18 0.10 0.09 0.12 0.15
0.13 0.53 0.24 0.20 0.43 0.20 0.11 0.08 0.09 0.14 0.31 0.68 0.90 1.20 1.26 0.50 0.35 0.24 0.17 0.21 0.17 0.03 0.01 0.00 0.00 0.00 0.00 0.01 0.03 0.04 0.06 0.06 0.03 0.06 0.17 0.23 0.27 0.38 0.39 0.34 0.19 0.19 0.23 0.22
0.09 0.10 0.15 0.29 0.31 0.21 0.15 0.13 0.16 0.21 0.38 0.58 0.68 0.82 0.53 0.19 0.09 0.09 0.09 0.06 0.05 0.01 0.00 0.00 0.00 0.00 0.01 0.02 0.03 0.08 0.08 0.07 0.05 0.03 0.04 0.12 0.21 0.35 0.42 0.43 0.29 0.31 0.30 0.24
0.05 0.21 0.46 0.39 0.40 0.21 0.54 0.52 0.70 0.44 0.32 0.35 0.62 0.29 0.21 0.09 0.05 0.06 0.07 0.07 0.03 0.01 0.00 0.00 0.00 0.00 0.03 0.04 0.07 0.09 0.10 0.12 0.10 0.11 0.11 0.08 0.12 0.26 0.38 0.38 0.32 0.27 0.27 0.24
0.02 0.19 0.55 1.20 0.70 0.19 0.54 0.60 0.43 0.28 0.27 0.34 0.21 0.23 0.18 0.09 0.05 0.03 0.04 0.05 0.03 0.03 0.02 0.01 0.00 0.01 0.09 0.09 0.11 0.13 0.13 0.13 0.14 0.15 0.15 0.19 0.20 0.28 0.38 0.30 0.31 0.24 0.21 0.22
0.00 0.02 0.12 0.37 0.37 0.09 0.34 0.38 0.16 0.13 0.12 0.08 0.07 0.15 0.14 0.05 0.03 0.05 0.05 0.04 0.06 0.06 0.05 0.05 0.06 0.16 0.31 0.31 0.27 0.25 0.23 0.21 0.18 0.16 0.16 0.18 0.22 0.29 0.34 0.33 0.37 0.34 0.31 0.31
0.01 0.01 0.01 0.09 0.06 0.29 0.68 0.19 0.04 0.03 0.06 0.06 0.06 0.10 0.09 0.07 0.07 0.05 0.07 0.08 0.09 0.08 0.08 0.08 0.10 0.20 0.35 0.44 0.44 0.38 0.35 0.38 0.37 0.29 0.24 0.22 0.28 0.40 0.52 0.45 0.39 0.47 0.48 0.36
0.00 0.00 0.02 0.08 0.11 0.26 0.13 0.03 0.02 0.06 0.08 0.06 0.06 0.07 0.07 0.09 0.04 0.02 0.04 0.07 0.11 0.10 0.07 0.05 0.07 0.11 0.19 0.28 0.41 0.51 0.40 0.43 0.46 0.52 0.50 0.50 0.45 0.52 0.55 0.63 0.65 0.59 0.61 0.64
0.00 0.00 0.01 0.04 0.06 0.17 0.11 0.00 0.00 0.01 0.08 0.05 0.03 0.03 0.02 0.03 0.04 0.05 0.05 0.06 0.08 0.06 0.01 0.01 0.01 0.02 0.07 0.20 0.24 0.32 0.45 0.40 0.48 0.58 0.77 0.95 0.94 0.89 0.96 0.98 1.02 1.14 1.12 1.00
0.00 0.00 0.01 0.02 0.05 0.03 0.00 0.02 0.02 0.06 0.17 0.08 0.03 0.01 0.00 0.02 0.04 0.06 0.04 0.05 0.05 0.04 0.00 0.00 0.00 0.00 0.00 0.03 0.11 0.17 0.25 0.40 0.41 0.45 0.69 0.76 0.93 1.07 1.06 1.20 1.26 1.39 1.57 1.63
0.01 0.08 0.02 0.02 0.03 0.03 0.00 0.01 0.05 0.10 0.07 0.05 0.03 0.01 0.01 0.01 0.02 0.02 0.03 0.02 0.01 0.01 0.01 0.00 0.00 0.00 0.00 0.00 0.01 0.05 0.12 0.18 0.24 0.31 0.33 0.46 0.51 0.53 0.74 0.78 0.84 0.94 0.96 1.08
0.01 0.01 0.01 0.02 0.04 0.07 0.03 0.05 0.05 0.02 0.02 0.01 0.00 0.00 0.00 0.00 0.00 0.00 0.00 0.00 0.00 0.00 0.00 0.00 0.00 0.00 0.00 0.00 0.00 0.01 0.04 0.05 0.08 0.12 0.16 0.19 0.24 0.35 0.38 0.40 0.47 0.45 0.46 0.47
0.01 0.00 0.01 0.04 0.08 0.03 0.02 0.01 0.00 0.00 0.00 0.00 0.00 0.00 0.00 0.00 0.00 0.00 0.00 0.00 0.00 0.00 0.00 0.00 0.00 0.00 0.00 0.00 0.00 0.01 0.00 0.00 0.01 0.03 0.05 0.06 0.07 0.10 0.13 0.20 0.26 0.33 0.37 0.36
0.00 0.00 0.00 0.03 0.04 0.02 0.02 0.00 0.00 0.00 0.00 0.00 0.00 0.00 0.00 0.00 0.00 0.00 0.00 0.00 0.00 0.00 0.00 0.00 0.00 0.00 0.00 0.00 0.00 0.00 0.00 0.00 0.00 0.00 0.01 0.02 0.01 0.01 0.03 0.05 0.08 0.12 0.19 0.18
0.00 0.00 0.01 0.04 0.02 0.02 0.02 0.00 0.00 0.00 0.00 0.00 0.00 0.00 0.00 0.00 0.00 0.00 0.00 0.00 0.00 0.00 0.00 0.00 0.00 0.00 0.00 0.00 0.00 0.00 0.00 0.00 0.00 0.00 0.01 0.02 0.03 0.01 0.00 0.00 0.01 0.02 0.04 0.04

GFSCGP_prec_precacc12_120.txt.gz
Total_Precipitation_Accumulation
0.00 0.00 0.00 0.00 0.00 0.00 0.00 0.00 0.00 0.00 0.00 0.00 0.00 0.00 0.00 0.00 0.00 0.00 0.00 0.00 0.00 0.00 0.00 0.00 0.00 0.00 0.00 0.00 0.00 0.00 0.00 0.00 0.00 0.00 0.01 0.01 0.00 0.00 0.01 0.00 0.00 0.00 0.00 0.00
0.00 0.00 0.00 0.00 0.00 0.00 0.00 0.00 0.00 0.00 0.00 0.00 0.01 0.00 0.00 0.00 0.00 0.00 0.00 0.00 0.00 0.00 0.00 0.00 0.00 0.00 0.00 0.00 0.00 0.00 0.00 0.00 0.00 0.00 0.01 0.05 0.03 0.03 0.06 0.04 0.00 0.00 0.00 0.00
0.00 0.00 0.00 0.00 0.00 0.00 0.00 0.00 0.00 0.00 0.00 0.00 0.03 0.01 0.00 0.00 0.00 0.00 0.00 0.00 0.00 0.00 0.00 0.00 0.00 0.00 0.00 0.00 0.00 0.00 0.00 0.00 0.00 0.00 0.06 0.09 0.11 0.14 0.15 0.06 0.01 0.00 0.00 0.00
0.01 0.00 0.00 0.00 0.00 0.01 0.00 0.00 0.00 0.00 0.01 0.04 0.06 0.06 0.00 0.00 0.00 0.00 0.00 0.00 0.00 0.00 0.00 0.00 0.00 0.00 0.00 0.00 0.00 0.00 0.00 0.00 0.01 0.03 0.01 0.03 0.01 0.01 0.01 0.01 0.01 0.01 0.01 0.00
0.03 0.01 0.01 0.01 0.00 0.02 0.01 0.01 0.00 0.01 0.04 0.02 0.03 0.06 0.00 0.00 0.04 0.02 0.00 0.00 0.00 0.00 0.00 0.00 0.00 0.00 0.00 0.00 0.00 0.00 0.03 0.12 0.12 0.10 0.07 0.06 0.08 0.07 0.04 0.02 0.01 0.02 0.08 0.07
0.00 0.00 0.01 0.00 0.00 0.01 0.01 0.01 0.03 0.06 0.07 0.06 0.00 0.01 0.05 0.36 0.18 0.10 0.02 0.00 0.00 0.00 0.00 0.00 0.00 0.00 0.00 0.00 0.00 0.00 0.00 0.04 0.16 0.16 0.18 0.19 0.17 0.14 0.10 0.04 0.03 0.07 0.18 0.11
0.00 0.00 0.00 0.01 0.00 0.01 0.02 0.04 0.06 0.05 0.08 0.02 0.01 0.03 0.16 0.33 0.22 0.13 0.07 0.02 0.01 0.00 0.00 0.00 0.00 0.00 0.00 0.00 0.00 0.00 0.00 0.00 0.03 0.05 0.07 0.06 0.07 0.07 0.04 0.06 0.08 0.15 0.21 0.13
0.00 0.01 0.01 0.00 0.00 0.01 0.01 0.02 0.03 0.05 0.03 0.04 0.04 0.09 0.45 0.30 0.54 0.26 0.19 0.05 0.02 0.01 0.00 0.00 0.00 0.00 0.00 0.00 0.00 0.00 0.00 0.00 0.00 0.01 0.01 0.01 0.04 0.06 0.03 0.01 0.04 0.04 0.12 0.11
0.06 0.05 0.02 0.01 0.03 0.08 0.05 0.01 0.01 0.04 0.09 0.10 0.12 0.45 0.37 0.34 0.57 1.24 0.51 0.13 0.08 0.03 0.01 0.00 0.00 0.00 0.00 0.00 0.00 0.00 0.00 0.00 0.00 0.00 0.00 0.01 0.04 0.06 0.04 0.05 0.07 0.04 0.04 0.05
0.07 0.28 0.10 0.03 0.05 0.05 0.05 0.05 0.09 0.11 0.11 0.23 0.20 0.31 0.46 0.63 1.01 0.77 0.83 0.60 0.17 0.15 0.06 0.02 0.00 0.00 0.00 0.00 0.00 0.00 0.00 0.00 0.00 0.00 0.00 0.04 0.05 0.03 0.08 0.07 0.02 0.04 0.11 0.12
0.08 0.36 0.27 0.10 0.11 0.11 0.06 0.03 0.05 0.05 0.14 0.39 0.64 0.73 1.03 1.34 1.51 1.44 0.67 0.52 0.42 0.14 0.12 0.05 0.01 0.00 0.00 0.00 0.00 0.01 0.01 0.02 0.02 0.02 0.07 0.10 0.06 0.10 0.15 0.10 0.08 0.11 0.15 0.16
0.08 0.70 0.55 0.18 0.11 0.16 0.19 0.10 0.03 0.08 0.17 0.26 0.79 1.07 1.58 1.35 1.05 0.67 0.64 0.49 0.40 0.26 0.17 0.09 0.03 0.00 0.00 0.00 0.00 0.03 0.03 0.06 0.08 0.10 0.17 0.18 0.21 0.29 0.25 0.18 0.12 0.12 0.13 0.18
0.15 0.58 0.22 0.13 0.35 0.18 0.09 0.10 0.08 0.10 0.27 0.68 0.92 1.15 1.29 0.58 0.45 0.33 0.29 0.31 0.27 0.16 0.10 0.04 0.01 0.00 0.00 0.00 0.00 0.00 0.03 0.05 0.03 0.06 0.17 0.23 0.27 0.35 0.38 0.31 0.20 0.22 0.25 0.25
0.15 0.17 0.22 0.24 0.35 0.23 0.11 0.09 0.14 0.21 0.36 0.58 0.76 0.83 0.54 0.27 0.17 0.16 0.18 0.18 0.19 0.16 0.06 0.02 0.01 0.00 0.00 0.00 0.01 0.02 0.02 0.03 0.03 0.02 0.03 0.10 0.20 0.34 0.39 0.37 0.31 0.33 0.33 0.28
0.02 0.17 0.41 0.34 0.48 0.26 0.55 0.60 0.71 0.41 0.34 0.40 0.73 0.36 0.32 0.19 0.14 0.13 0.12 0.14 0.06 0.03 0.04 0.01 0.00 0.00 0.00 0.00 0.02 0.02 0.04 0.05 0.05 0.05 0.04 0.05 0.08 0.22 0.34 0.36 0.33 0.31 0.34 0.32
0.01 0.18 0.60 1.09 0.73 0.23 0.62 0.82 0.63 0.34 0.35 0.37 0.20 0.18 0.24 0.15 0.11 0.08 0.08 0.08 0.04 0.02 0.02 0.01 0.00 0.00 0.00 0.00 0.02 0.05 0.05 0.06 0.06 0.06 0.07 0.10 0.13 0.23 0.32 0.25 0.29 0.24 0.23 0.26
0.00 0.02 0.13 0.41 0.38 0.10 0.40 0.63 0.34 0.20 0.16 0.09 0.06 0.15 0.16 0.08 0.07 0.09 0.08 0.07 0.05 0.04 0.03 0.04 0.04 0.03 0.02 0.02 0.05 0.14 0.13 0.13 0.10 0.08 0.07 0.08 0.13 0.23 0.30 0.30 0.36 0.33 0.31 0.33
0.00 0.01 0.02 0.13 0.08 0.28 0.73 0.27 0.11 0.06 0.11 0.08 0.06 0.11 0.10 0.06 0.09 0.08 0.08 0.08 0.06 0.05 0.04 0.03 0.03 0.02 0.02 0.03 0.09 0.16 0.22 0.28 0.27 0.19 0.14 0.12 0.19 0.31 0.46 0.42 0.38 0.47 0.48 0.40
0.00 0.01 0.04 0.09 0.11 0.27 0.16 0.04 0.03 0.05 0.08 0.09 0.07 0.08 0.07 0.07 0.03 0.02 0.03 0.05 0.06 0.04 0.02 0.01 0.01 0.01 0.00 0.02 0.13 0.19 0.23 0.27 0.31 0.36 0.31 0.31 0.27 0.36 0.42 0.56 0.63 0.59 0.60 0.70
0.00 0.01 0.03 0.05 0.05 0.12 0.06 0.01 0.00 0.01 0.06 0.06 0.04 0.03 0.03 0.04 0.03 0.05 0.03 0.02 0.03 0.02 0.00 0.00 0.00 0.00 0.00 0.00 0.01 0.05 0.12 0.16 0.28 0.35 0.46 0.46 0.47 0.55 0.63 0.70 0.83 1.03 1.02 0.89
0.00 0.02 0.04 0.02 0.03 0.02 0.01 0.03 0.02 0.03 0.10 0.07 0.02 0.01 0.00 0.01 0.03 0.04 0.02 0.01 0.01 0.00 0.00 0.00 0.00 0.00 0.00 0.00 0.00 0.01 0.04 0.12 0.18 0.21 0.27 0.32 0.48 0.62 0.67 0.76 0.94 1.13 1.27 1.36
0.00 0.03 0.01 0.02 0.01 0.02 0.01 0.02 0.04 0.08 0.06 0.04 0.03 0.01 0.01 0.01 0.01 0.01 0.01 0.00 0.00 0.00 0.00 0.00 0.00 0.00 0.00 0.00 0.00 0.00 0.03 0.06 0.11 0.12 0.11 0.17 0.20 0.24 0.44 0.52 0.62 0.77 0.81 0.94
0.01 0.00 0.01 0.02 0.03 0.07 0.04 0.05 0.05 0.01 0.02 0.01 0.00 0.00 0.00 0.00 0.00 0.00 0.00 0.00 0.00 0.00 0.00 0.00 0.00 0.00 0.00 0.00 0.00 0.01 0.02 0.01 0.01 0.04 0.06 0.06 0.09 0.13 0.16 0.26 0.38 0.38 0.42 0.44
0.01 0.00 0.01 0.03 0.07 0.03 0.02 0.01 0.00 0.00 0.00 0.00 0.00 0.00 0.00 0.00 0.00 0.00 0.00 0.00 0.00 0.00 0.00 0.00 0.00 0.00 0.00 0.00 0.00 0.01 0.01 0.00 0.00 0.01 0.02 0.02 0.03 0.05 0.07 0.09 0.14 0.23 0.31 0.32
0.00 0.00 0.00 0.03 0.05 0.02 0.02 0.00 0.00 0.00 0.00 0.00 0.00 0.00 0.00 0.00 0.00 0.00 0.00 0.00 0.00 0.00 0.00 0.00 0.00 0.00 0.00 0.00 0.00 0.00 0.00 0.00 0.00 0.00 0.01 0.02 0.00 0.00 0.01 0.03 0.06 0.09 0.16 0.16
0.00 0.00 0.01 0.01 0.01 0.01 0.02 0.00 0.00 0.00 0.00 0.00 0.00 0.00 0.00 0.00 0.00 0.00 0.00 0.00 0.00 0.00 0.00 0.00 0.00 0.00 0.00 0.00 0.00 0.00 0.00 0.00 0.00 0.00 0.01 0.02 0.03 0.01 0.00 0.00 0.01 0.02 0.04 0.03

GFSCGP_prec_precacc12_123.txt.gz
Total_Precipitation_Accumulation
0.00 0.00 0.00 0.00 0.00 0.00 0.00 0.00 0.00 0.00 0.00 0.00 0.00 0.00 0.00 0.00 0.00 0.00 0.00 0.00 0.00 0.00 0.00 0.00 0.00 0.00 0.00 0.00 0.00 0.00 0.00 0.00 0.00 0.00 0.01 0.01 0.01 0.01 0.02 0.00 0.00 0.00 0.00 0.00
0.00 0.00 0.00 0.00 0.00 0.00 0.00 0.00 0.00 0.00 0.00 0.00 0.00 0.00 0.00 0.00 0.00 0.00 0.00 0.00 0.00 0.00 0.00 0.00 0.00 0.00 0.00 0.00 0.00 0.00 0.00 0.00 0.01 0.00 0.01 0.06 0.04 0.03 0.08 0.05 0.00 0.00 0.00 0.00
0.00 0.00 0.00 0.00 0.00 0.00 0.00 0.00 0.00 0.00 0.00 0.00 0.02 0.00 0.00 0.00 0.00 0.00 0.00 0.00 0.00 0.00 0.00 0.00 0.00 0.00 0.00 0.00 0.00 0.00 0.00 0.00 0.00 0.00 0.07 0.13 0.12 0.15 0.15 0.06 0.01 0.00 0.01 0.00
0.01 0.00 0.00 0.00 0.00 0.01 0.00 0.00 0.00 0.00 0.00 0.00 0.05 0.06 0.00 0.00 0.00 0.00 0.00 0.00 0.00 0.00 0.00 0.00 0.00 0.00 0.00 0.00 0.00 0.00 0.00 0.00 0.01 0.03 0.02 0.03 0.01 0.01 0.01 0.01 0.02 0.05 0.05 0.02
0.01 0.01 0.01 0.00 0.00 0.02 0.01 0.01 0.00 0.01 0.02 0.01 0.02 0.06 0.00 0.01 0.08 0.05 0.02 0.01 0.00 0.00 0.00 0.00 0.00 0.00 0.00 0.00 0.00 0.00 0.01 0.09 0.12 0.10 0.08 0.07 0.08 0.07 0.04 0.02 0.01 0.05 0.11 0.16
0.00 0.00 0.00 0.00 0.00 0.01 0.01 0.01 0.02 0.05 0.06 0.04 0.00 0.02 0.06 0.48 0.46 0.30 0.16 0.07 0.03 0.01 0.00 0.00 0.00 0.00 0.00 0.00 0.00 0.00 0.00 0.01 0.11 0.15 0.19 0.19 0.17 0.14 0.10 0.04 0.03 0.07 0.23 0.19
0.00 0.00 0.00 0.00 0.00 0.01 0.02 0.04 0.05 0.04 0.07 0.01 0.02 0.04 0.20 0.42 0.38 0.26 0.21 0.14 0.08 0.03 0.01 0.01 0.00 0.00 0.00 0.00 0.00 0.00 0.00 0.01 0.01 0.04 0.07 0.06 0.07 0.07 0.05 0.06 0.08 0.16 0.27 0.15
0.00 0.00 0.00 0.00 0.00 0.00 0.01 0.02 0.02 0.04 0.03 0.04 0.05 0.16 0.58 0.46 0.71 0.42 0.60 0.28 0.16 0.09 0.03 0.01 0.00 0.00 0.00 0.00 0.00 0.00 0.01 0.02 0.02 0.02 0.03 0.03 0.05 0.07 0.05 0.02 0.06 0.08 0.19 0.13
0.01 0.00 0.00 0.00 0.02 0.08 0.05 0.01 0.00 0.03 0.08 0.09 0.23 0.64 0.49 0.42 0.69 1.40 0.69 0.31 0.28 0.15 0.05 0.00 0.01 0.01 0.01 0.01 0.02 0.01 0.02 0.01 0.01 0.01 0.02 0.03 0.03 0.05 0.05 0.07 0.10 0.05 0.07 0.13
0.03 0.06 0.01 0.00 0.03 0.05 0.05 0.05 0.06 0.02 0.06 0.16 0.31 0.36 0.39 0.37 0.78 0.79 1.01 1.00 0.40 0.35 0.14 0.04 0.01 0.00 0.01 0.01 0.01 0.01 0.01 0.00 0.01 0.01 0.00 0.01 0.00 0.02 0.06 0.07 0.04 0.05 0.14 0.18
0.06 0.12 0.12 0.06 0.08 0.11 0.05 0.01 0.02 0.03 0.09 0.26 0.56 0.43 0.71 0.81 1.00 1.24 0.93 0.91 0.92 0.46 0.48 0.23 0.10 0.01 0.00 0.01 0.01 0.00 0.00 0.01 0.01 0.02 0.03 0.03 0.02 0.05 0.07 0.07 0.07 0.12 0.17 0.22
0.03 0.33 0.46 0.16 0.06 0.13 0.11 0.05 0.01 0.03 0.11 0.14 0.60 0.56 0.85 1.04 0.87 0.71 0.75 0.65 0.60 0.57 0.43 0.42 0.31 0.22 0.02 0.01 0.00 0.00 0.01 0.02 0.02 0.03 0.07 0.08 0.10 0.13 0.13 0.15 0.12 0.13 0.12 0.16
0.14 0.50 0.18 0.11 0.30 0.16 0.06 0.07 0.07 0.07 0.23 0.56 0.77 0.63 0.90 0.62 0.51 0.42 0.37 0.38 0.35 0.24 0.27 0.33 0.21 0.19 0.08 0.02 0.00 0.00 0.01 0.01 0.01 0.00 0.04 0.10 0.12 0.17 0.23 0.26 0.20 0.18 0.19 0.23
0.17 0.16 0.21 0.20 0.31 0.26 0.12 0.06 0.07 0.11 0.32 0.47 0.63 0.59 0.51 0.31 0.22 0.22 0.26 0.25 0.26 0.23 0.13 0.13 0.22 0.18 0.14 0.02 0.00 0.00 0.00 0.00 0.00 0.00 0.00 0.05 0.10 0.19 0.24 0.32 0.29 0.27 0.27 0.27
0.03 0.20 0.40 0.32 0.47 0.24 0.42 0.53 0.56 0.34 0.37 0.33 0.59 0.37 0.38 0.25 0.20 0.19 0.19 0.22 0.07 0.04 0.06 0.03 0.02 0.02 0.04 0.01 0.00 0.00 0.01 0.02 0.02 0.02 0.02 0.01 0.03 0.09 0.18 0.31 0.31 0.27 0.30 0.30
0.01 0.11 0.46 0.73 0.58 0.25 0.59 0.82 0.66 0.35 0.35 0.30 0.18 0.19 0.28 0.20 0.19 0.17 0.16 0.14 0.05 0.01 0.01 0.01 0.00 0.01 0.01 0.01 0.00 0.00 0.01 0.02 0.03 0.04 0.03 0.03 0.03 0.03 0.10 0.16 0.22 0.22 0.21 0.26
0.00 0.03 0.12 0.29 0.34 0.11 0.36 0.74 0.42 0.23 0.18 0.10 0.07 0.16 0.21 0.14 0.14 0.16 0.15 0.13 0.06 0.02 0.01 0.01 0.02 0.03 0.02 0.02 0.01 0.01 0.01 0.04 0.05 0.03 0.02 0.02 0.03 0.10 0.12 0.20 0.28 0.29 0.30 0.32
0.00 0.03 0.03 0.16 0.11 0.17 0.52 0.31 0.18 0.10 0.13 0.09 0.06 0.12 0.13 0.09 0.12 0.11 0.09 0.07 0.04 0.02 0.01 0.00 0.01 0.01 0.01 0.01 0.00 0.00 0.01 0.08 0.15 0.13 0.08 0.06 0.08 0.12 0.25 0.28 0.29 0.41 0.44 0.39
0.00 0.02 0.09 0.11 0.10 0.21 0.16 0.05 0.04 0.05 0.09 0.10 0.09 0.09 0.08 0.09 0.04 0.02 0.02 0.02 0.03 0.01 0.00 0.00 0.01 0.01 0.00 0.00 0.00 0.01 0.01 0.05 0.12 0.20 0.21 0.22 0.14 0.17 0.17 0.35 0.49 0.48 0.49 0.62
0.00 0.04 0.11 0.04 0.05 0.06 0.04 0.01 0.00 0.01 0.05 0.06 0.04 0.03 0.03 0.04 0.02 0.03 0.01 0.00 0.00 0.00 0.00 0.00 0.00 0.00 0.00 0.00 0.00 0.00 0.01 0.02 0.06 0.18 0.28 0.25 0.28 0.28 0.41 0.48 0.55 0.77 0.81 0.69
0.00 0.04 0.12 0.03 0.01 0.02 0.01 0.04 0.02 0.03 0.08 0.06 0.02 0.00 0.00 0.01 0.01 0.02 0.00 0.00 0.00 0.00 0.00 0.00 0.00 0.00 0.00 0.00 0.00 0.00 0.01 0.03 0.02 0.06 0.14 0.16 0.16 0.21 0.30 0.42 0.49 0.64 0.88 1.00
0.00 0.00 0.04 0.06 0.01 0.01 0.02 0.02 0.04 0.06 0.05 0.03 0.02 0.00 0.00 0.01 0.00 0.00 0.00 0.00 0.00 0.00 0.00 0.00 0.00 0.00 0.00 0.00 0.00 0.00 0.03 0.03 0.01 0.00 0.00 0.01 0.02 0.05 0.11 0.15 0.23 0.31 0.37 0.51
0.00 0.00 0.01 0.04 0.03 0.05 0.04 0.04 0.04 0.00 0.01 0.01 0.00 0.00 0.00 0.00 0.00 0.00 0.00 0.00 0.00 0.00 0.00 0.00 0.00 0.00 0.00 0.00 0.00 0.01 0.03 0.00 0.00 0.00 0.00 0.00 0.01 0.01 0.02 0.03 0.05 0.11 0.19 0.21
0.00 0.00 0.00 0.01 0.06 0.03 0.02 0.01 0.00 0.00 0.00 0.00 0.00 0.00 0.00 0.00 0.00 0.00 0.00 0.00 0.00 0.00 0.00 0.00 0.00 0.00 0.00 0.00 0.00 0.01 0.01 0.00 0.00 0.01 0.00 0.00 0.00 0.00 0.00 0.01 0.02 0.04 0.08 0.10
0.00 0.00 0.00 0.02 0.04 0.02 0.02 0.00 0.00 0.00 0.00 0.00 0.00 0.00 0.00 0.00 0.00 0.00 0.00 0.00 0.00 0.00 0.00 0.00 0.00 0.00 0.00 0.00 0.00 0.00 0.01 0.00 0.00 0.00 0.01 0.01 0.00 0.00 0.00 0.01 0.02 0.04 0.09 0.08
0.00 0.00 0.00 0.00 0.00 0.00 0.02 0.00 0.00 0.00 0.00 0.00 0.00 0.00 0.00 0.00 0.00 0.00 0.00 0.00 0.00 0.00 0.00 0.00 0.00 0.00 0.00 0.00 0.00 0.00 0.00 0.00 0.00 0.00 0.01 0.01 0.02 0.00 0.00 0.00 0.00 0.01 0.03 0.02

GFSCGP_prec_precacc12_129.txt.gz
Total_Precipitation_Accumulation
0.00 0.00 0.00 0.00 0.00 0.00 0.00 0.00 0.00 0.00 0.00 0.00 0.00 0.00 0.00 0.00 0.00 0.00 0.00 0.00 0.00 0.00 0.00 0.00 0.00 0.00 0.00 0.00 0.00 0.00 0.00 0.00 0.00 0.01 0.03 0.02 0.00 0.01 0.02 0.00 0.00 0.00 0.00 0.00
0.00 0.00 0.00 0.00 0.00 0.00 0.00 0.00 0.00 0.00 0.00 0.00 0.00 0.00 0.00 0.00 0.00 0.00 0.00 0.00 0.00 0.00 0.00 0.00 0.00 0.00 0.00 0.00 0.00 0.00 0.00 0.00 0.01 0.00 0.00 0.02 0.01 0.00 0.02 0.01 0.00 0.00 0.00 0.00
0.00 0.00 0.00 0.00 0.00 0.00 0.00 0.00 0.00 0.00 0.00 0.00 0.00 0.00 0.00 0.00 0.00 0.00 0.00 0.00 0.00 0.00 0.00 0.00 0.00 0.00 0.00 0.00 0.00 0.00 0.00 0.00 0.02 0.01 0.03 0.06 0.02 0.01 0.01 0.02 0.01 0.01 0.01 0.00
0.00 0.00 0.00 0.00 0.00 0.00 0.00 0.00 0.00 0.00 0.00 0.00 0.00 0.03 0.00 0.00 0.00 0.00 0.00 0.00 0.00 0.00 0.00 0.00 0.00 0.00 0.00 0.00 0.00 0.00 0.00 0.00 0.04 0.15 0.29 0.16 0.04 0.00 0.01 0.01 0.03 0.05 0.06 0.03
0.00 0.00 0.00 0.00 0.00 0.00 0.00 0.00 0.00 0.00 0.00 0.00 0.00 0.01 0.00 0.01 0.07 0.05 0.03 0.02 0.01 0.01 0.01 0.01 0.01 0.01 0.00 0.00 0.00 0.00 0.00 0.00 0.01 0.09 0.40 0.41 0.27 0.10 0.06 0.03 0.03 0.06 0.12 0.17
0.00 0.00 0.00 0.00 0.00 0.00 0.00 0.00 0.00 0.00 0.00 0.01 0.00 0.01 0.04 0.42 0.44 0.29 0.17 0.10 0.07 0.05 0.05 0.04 0.04 0.03 0.03 0.03 0.04 0.01 0.00 0.00 0.00 0.02 0.12 0.38 0.70 0.96 0.83 0.61 0.19 0.08 0.22 0.21
0.00 0.00 0.00 0.00 0.00 0.00 0.00 0.00 0.00 0.00 0.01 0.00 0.00 0.02 0.17 0.34 0.31 0.31 0.28 0.20 0.17 0.12 0.10 0.09 0.08 0.07 0.06 0.08 0.12 0.12 0.05 0.02 0.01 0.02 0.06 0.13 0.20 0.36 0.72 1.15 1.08 0.33 0.27 0.15
0.00 0.00 0.00 0.00 0.00 0.00 0.00 0.00 0.00 0.02 0.01 0.03 0.03 0.18 0.48 0.47 0.35 0.41 0.70 0.43 0.32 0.24 0.15 0.11 0.12 0.10 0.07 0.08 0.13 0.17 0.16 0.12 0.04 0.03 0.06 0.12 0.12 0.11 0.14 0.21 0.38 0.22 0.23 0.15
0.01 0.00 0.00 0.00 0.00 0.00 0.00 0.00 0.00 0.00 0.01 0.05 0.24 0.59 0.35 0.23 0.35 0.78 0.63 0.43 0.60 0.58 0.33 0.18 0.16 0.19 0.18 0.14 0.14 0.20 0.19 0.16 0.13 0.09 0.06 0.06 0.10 0.07 0.07 0.09 0.15 0.10 0.08 0.15
0.03 0.05 0.00 0.00 0.00 0.00 0.00 0.01 0.04 0.04 0.04 0.11 0.28 0.34 0.30 0.20 0.24 0.47 0.87 1.03 0.59 0.70 0.59 0.32 0.24 0.24 0.20 0.18 0.14 0.16 0.19 0.15 0.12 0.11 0.09 0.09 0.06 0.04 0.03 0.05 0.07 0.08 0.13 0.16
0.05 0.11 0.01 0.01 0.00 0.01 0.03 0.01 0.02 0.04 0.07 0.18 0.22 0.21 0.17 0.18 0.29 0.51 0.67 0.97 1.24 0.76 1.04 0.77 0.45 0.33 0.29 0.20 0.10 0.11 0.10 0.10 0.08 0.06 0.05 0.03 0.03 0.03 0.02 0.01 0.02 0.06 0.08 0.14
0.02 0.10 0.06 0.00 0.00 0.01 0.04 0.05 0.03 0.05 0.05 0.09 0.12 0.16 0.20 0.21 0.24 0.26 0.30 0.38 0.58 0.79 0.88 1.13 0.85 0.66 0.53 0.15 0.06 0.06 0.06 0.06 0.06 0.09 0.05 0.04 0.01 0.01 0.01 0.01 0.02 0.04 0.03 0.05
0.08 0.15 0.05 0.01 0.02 0.01 0.02 0.07 0.09 0.09 0.09 0.08 0.12 0.21 0.24 0.20 0.21 0.22 0.25 0.26 0.31 0.36 0.51 0.75 0.66 0.70 0.78 0.33 0.15 0.06 0.04 0.02 0.08 0.06 0.03 0.03 0.04 0.03 0.03 0.03 0.03 0.06 0.05 0.06
0.14 0.14 0.14 0.14 0.16 0.09 0.04 0.02 0.02 0.08 0.16 0.17 0.21 0.22 0.17 0.16 0.17 0.18 0.21 0.28 0.33 0.35 0.23 0.26 0.45 0.50 0.68 0.62 0.39 0.23 0.10 0.08 0.07 0.15 0.06 0.03 0.02 0.04 0.05 0.05 0.05 0.06 0.07 0.10
0.02 0.12 0.22 0.12 0.14 0.12 0.16 0.24 0.09 0.04 0.14 0.17 0.24 0.19 0.22 0.21 0.20 0.19 0.22 0.28 0.17 0.09 0.08 0.03 0.03 0.10 0.26 0.32 0.28 0.27 0.16 0.08 0.08 0.08 0.08 0.01 0.00 0.01 0.02 0.05 0.07 0.08 0.11 0.13
0.01 0.04 0.15 0.12 0.14 0.13 0.24 0.35 0.30 0.11 0.14 0.11 0.12 0.14 0.17 0.17 0.19 0.21 0.23 0.21 0.14 0.03 0.01 0.01 0.01 0.01 0.01 0.02 0.03 0.02 0.03 0.01 0.02 0.01 0.00 0.00 0.00 0.00 0.00 0.00 0.01 0.02 0.03 0.06
0.01 0.03 0.05 0.14 0.06 0.07 0.15 0.44 0.32 0.13 0.08 0.05 0.05 0.08 0.12 0.14 0.15 0.19 0.18 0.15 0.08 0.03 0.01 0.02 0.03 0.03 0.03 0.02 0.01 0.01 0.00 0.00 0.00 0.00 0.00 0.00 0.00 0.00 0.00 0.00 0.00 0.00 0.01 0.02
0.00 0.03 0.04 0.13 0.12 0.15 0.16 0.18 0.18 0.10 0.09 0.05 0.02 0.05 0.08 0.08 0.09 0.09 0.07 0.04 0.02 0.01 0.00 0.01 0.02 0.02 0.02 0.01 0.00 0.00 0.00 0.00 0.00 0.00 0.00 0.00 0.00 0.00 0.00 0.00 0.00 0.00 0.01 0.05
0.00 0.03 0.11 0.08 0.07 0.10 0.10 0.03 0.05 0.07 0.06 0.05 0.04 0.04 0.04 0.05 0.03 0.01 0.01 0.01 0.01 0.00 0.00 0.00 0.01 0.01 0.00 0.00 0.00 0.00 0.00 0.00 0.00 0.00 0.00 0.01 0.00 0.01 0.00 0.00 0.01 0.02 0.02 0.07
0.00 0.04 0.13 0.03 0.04 0.05 0.04 0.01 0.00 0.01 0.04 0.01 0.01 0.01 0.02 0.03 0.03 0.02 0.01 0.00 0.00 0.00 0.00 0.00 0.00 0.00 0.00 0.00 0.00 0.00 0.01 0.01 0.01 0.00 0.00 0.01 0.00 0.01 0.01 0.02 0.02 0.01 0.02 0.04
0.00 0.04 0.13 0.06 0.05 0.03 0.01 0.02 0.01 0.05 0.06 0.01 0.00 0.00 0.00 0.01 0.01 0.01 0.00 0.00 0.00 0.00 0.00 0.00 0.00 0.00 0.00 0.00 0.00 0.00 0.01 0.02 0.01 0.00 0.00 0.00 0.00 0.01 0.01 0.01 0.02 0.02 0.04 0.07
0.00 0.01 0.04 0.07 0.04 0.04 0.01 0.02 0.02 0.02 0.01 0.00 0.00 0.00 0.00 0.00 0.00 0.00 0.00 0.00 0.00 0.00 0.00 0.00 0.00 0.00 0.00 0.00 0.00 0.00 0.01 0.01 0.00 0.00 0.00 0.00 0.00 0.00 0.00 0.00 0.00 0.01 0.03 0.04
0.00 0.00 0.01 0.03 0.03 0.02 0.02 0.02 0.01 0.00 0.00 0.00 0.00 0.00 0.00 0.00 0.00 0.00 0.00 0.00 0.00 0.00 0.00 0.00 0.00 0.00 0.00 0.00 0.00 0.01 0.01 0.00 0.00 0.00 0.00 0.00 0.00 0.00 0.00 0.00 0.00 0.00 0.00 0.01
0.00 0.00 0.00 0.01 0.02 0.01 0.00 0.00 0.00 0.00 0.00 0.00 0.00 0.00 0.00 0.00 0.00 0.00 0.00 0.00 0.00 0.00 0.00 0.00 0.00 0.00 0.00 0.00 0.00 0.00 0.00 0.00 0.00 0.00 0.00 0.00 0.00 0.00 0.00 0.00 0.00 0.01 0.02 0.01
0.00 0.00 0.00 0.01 0.03 0.01 0.00 0.00 0.00 0.00 0.00 0.00 0.00 0.00 0.00 0.00 0.00 0.00 0.00 0.00 0.00 0.00 0.00 0.00 0.00 0.00 0.00 0.00 0.00 0.00 0.00 0.00 0.00 0.00 0.00 0.00 0.00 0.00 0.00 0.00 0.01 0.01 0.05 0.04
0.00 0.00 0.00 0.00 0.00 0.00 0.00 0.00 0.00 0.00 0.00 0.00 0.00 0.00 0.00 0.00 0.00 0.00 0.00 0.00 0.00 0.00 0.00 0.00 0.00 0.00 0.00 0.00 0.00 0.00 0.00 0.00 0.00 0.00 0.00 0.00 0.00 0.00 0.00 0.00 0.00 0.00 0.01 0.00

GFSCGP_prec_precacc12_132.txt.gz
Total_Precipitation_Accumulation
0.00 0.00 0.00 0.00 0.00 0.00 0.00 0.00 0.00 0.00 0.00 0.00 0.00 0.00 0.00 0.00 0.00 0.00 0.00 0.00 0.00 0.00 0.00 0.00 0.00 0.00 0.00 0.00 0.00 0.00 0.00 0.00 0.00 0.04 0.14 0.16 0.13 0.09 0.09 0.00 0.00 0.00 0.00 0.00
0.00 0.00 0.00 0.00 0.00 0.00 0.00 0.00 0.00 0.00 0.00 0.00 0.00 0.00 0.00 0.00 0.00 0.00 0.00 0.00 0.00 0.00 0.00 0.00 0.00 0.00 0.00 0.00 0.00 0.00 0.00 0.00 0.01 0.00 0.04 0.13 0.17 0.13 0.05 0.02 0.00 0.00 0.00 0.00
0.00 0.00 0.00 0.00 0.00 0.00 0.00 0.00 0.00 0.00 0.00 0.00 0.00 0.00 0.00 0.00 0.00 0.00 0.00 0.00 0.00 0.00 0.00 0.00 0.00 0.00 0.00 0.00 0.00 0.00 0.00 0.00 0.02 0.01 0.09 0.19 0.17 0.18 0.15 0.09 0.00 0.01 0.01 0.00
0.00 0.00 0.00 0.00 0.00 0.00 0.00 0.00 0.00 0.00 0.00 0.00 0.00 0.01 0.00 0.00 0.00 0.00 0.00 0.00 0.00 0.00 0.00 0.00 0.00 0.00 0.00 0.00 0.00 0.00 0.00 0.00 0.04 0.15 0.32 0.28 0.22 0.23 0.10 0.04 0.03 0.04 0.04 0.03
0.00 0.00 0.00 0.00 0.00 0.00 0.00 0.00 0.00 0.00 0.00 0.00 0.00 0.00 0.00 0.00 0.04 0.04 0.03 0.02 0.01 0.01 0.02 0.01 0.01 0.01 0.00 0.00 0.00 0.00 0.00 0.00 0.01 0.09 0.41 0.47 0.41 0.19 0.10 0.08 0.05 0.04 0.05 0.10
0.00 0.00 0.00 0.00 0.00 0.00 0.00 0.00 0.00 0.00 0.00 0.00 0.00 0.01 0.01 0.15 0.32 0.22 0.15 0.10 0.07 0.06 0.05 0.04 0.04 0.04 0.03 0.04 0.04 0.01 0.01 0.00 0.00 0.01 0.12 0.40 0.79 1.19 1.38 1.06 0.54 0.22 0.19 0.19
0.00 0.00 0.00 0.00 0.00 0.00 0.00 0.00 0.00 0.00 0.00 0.00 0.00 0.01 0.07 0.13 0.21 0.21 0.22 0.18 0.16 0.12 0.10 0.09 0.08 0.07 0.07 0.09 0.13 0.14 0.07 0.04 0.02 0.03 0.06 0.13 0.29 0.60 1.10 1.71 2.32 1.73 1.18 0.87
0.00 0.00 0.00 0.00 0.00 0.00 0.00 0.00 0.00 0.00 0.00 0.00 0.01 0.12 0.21 0.27 0.25 0.28 0.59 0.41 0.31 0.23 0.15 0.12 0.13 0.11 0.11 0.13 0.16 0.21 0.20 0.19 0.11 0.07 0.09 0.15 0.15 0.21 0.50 0.56 0.94 1.30 1.43 1.12
0.01 0.00 0.00 0.00 0.00 0.00 0.00 0.00 0.00 0.00 0.00 0.01 0.13 0.29 0.24 0.14 0.21 0.29 0.38 0.37 0.57 0.57 0.33 0.19 0.17 0.23 0.31 0.25 0.20 0.28 0.32 0.39 0.30 0.20 0.12 0.15 0.16 0.13 0.18 0.26 0.45 0.69 0.61 0.50
0.02 0.03 0.00 0.00 0.00 0.00 0.00 0.00 0.02 0.04 0.03 0.08 0.16 0.20 0.16 0.07 0.11 0.22 0.38 0.65 0.50 0.60 0.55 0.31 0.26 0.31 0.30 0.36 0.25 0.30 0.43 0.53 0.37 0.36 0.23 0.16 0.18 0.12 0.11 0.09 0.14 0.26 0.51 0.55
0.01 0.05 0.00 0.00 0.00 0.01 0.03 0.01 0.01 0.04 0.06 0.09 0.09 0.14 0.12 0.13 0.16 0.25 0.41 0.62 0.89 0.64 0.94 0.75 0.48 0.43 0.55 0.69 0.29 0.32 0.47 0.87 0.48 0.30 0.22 0.10 0.08 0.13 0.09 0.11 0.08 0.11 0.13 0.20
0.01 0.05 0.02 0.00 0.00 0.00 0.02 0.04 0.05 0.08 0.06 0.10 0.17 0.17 0.11 0.14 0.16 0.15 0.17 0.26 0.36 0.59 0.74 1.10 0.90 0.75 0.76 0.37 0.30 0.28 0.27 0.27 0.47 0.17 0.09 0.06 0.02 0.03 0.07 0.06 0.08 0.04 0.04 0.04
0.05 0.06 0.02 0.02 0.04 0.01 0.02 0.05 0.08 0.11 0.11 0.09 0.13 0.17 0.12 0.11 0.11 0.12 0.14 0.16 0.21 0.25 0.44 0.77 0.76 0.81 0.94 0.52 0.47 0.35 0.31 0.16 0.19 0.12 0.12 0.11 0.04 0.02 0.03 0.03 0.04 0.04 0.04 0.04
0.07 0.05 0.03 0.11 0.10 0.06 0.03 0.01 0.02 0.08 0.18 0.19 0.15 0.12 0.09 0.08 0.09 0.10 0.13 0.16 0.20 0.22 0.20 0.26 0.48 0.58 0.86 0.86 0.56 0.47 0.42 0.38 0.20 0.18 0.07 0.09 0.06 0.04 0.03 0.03 0.03 0.03 0.04 0.05
0.02 0.07 0.14 0.07 0.03 0.06 0.09 0.10 0.05 0.04 0.10 0.14 0.12 0.08 0.11 0.12 0.11 0.12 0.16 0.20 0.14 0.07 0.05 0.03 0.03 0.10 0.29 0.41 0.37 0.37 0.25 0.21 0.23 0.23 0.19 0.07 0.03 0.02 0.02 0.02 0.02 0.02 0.04 0.08
0.01 0.03 0.08 0.07 0.03 0.07 0.12 0.11 0.10 0.04 0.06 0.05 0.08 0.10 0.11 0.11 0.14 0.17 0.18 0.18 0.13 0.03 0.01 0.01 0.01 0.01 0.01 0.03 0.05 0.07 0.08 0.03 0.03 0.04 0.05 0.05 0.01 0.00 0.00 0.00 0.00 0.01 0.01 0.03
0.01 0.05 0.05 0.11 0.05 0.07 0.10 0.18 0.14 0.05 0.04 0.04 0.05 0.06 0.09 0.11 0.12 0.14 0.14 0.11 0.07 0.03 0.01 0.01 0.02 0.02 0.02 0.01 0.01 0.01 0.00 0.00 0.01 0.01 0.01 0.00 0.00 0.00 0.00 0.00 0.00 0.00 0.00 0.00
0.01 0.03 0.04 0.12 0.10 0.15 0.09 0.10 0.11 0.07 0.04 0.02 0.02 0.04 0.05 0.06 0.07 0.06 0.04 0.02 0.01 0.01 0.00 0.01 0.01 0.01 0.01 0.01 0.00 0.00 0.00 0.00 0.00 0.00 0.00 0.00 0.00 0.00 0.00 0.00 0.00 0.00 0.00 0.00
0.00 0.03 0.10 0.11 0.11 0.09 0.06 0.02 0.04 0.06 0.04 0.02 0.02 0.03 0.03 0.04 0.02 0.01 0.00 0.01 0.01 0.00 0.00 0.00 0.01 0.01 0.00 0.00 0.00 0.00 0.00 0.00 0.00 0.00 0.00 0.00 0.00 0.00 0.00 0.00 0.00 0.00 0.00 0.00
0.00 0.03 0.12 0.04 0.08 0.09 0.03 0.01 0.00 0.01 0.03 0.00 0.00 0.01 0.01 0.02 0.03 0.01 0.01 0.00 0.00 0.00 0.00 0.00 0.00 0.00 0.00 0.00 0.00 0.00 0.00 0.00 0.01 0.00 0.01 0.00 0.00 0.00 0.01 0.01 0.01 0.01 0.01 0.01
0.01 0.03 0.11 0.06 0.07 0.05 0.00 0.00 0.00 0.05 0.06 0.00 0.00 0.00 0.00 0.00 0.01 0.01 0.00 0.00 0.00 0.00 0.00 0.00 0.00 0.00 0.00 0.00 0.00 0.00 0.00 0.01 0.01 0.00 0.00 0.00 0.00 0.01 0.01 0.00 0.01 0.01 0.01 0.01
0.00 0.01 0.04 0.07 0.06 0.07 0.01 0.02 0.02 0.02 0.01 0.00 0.00 0.00 0.00 0.00 0.00 0.00 0.00 0.00 0.00 0.00 0.00 0.00 0.00 0.00 0.00 0.00 0.00 0.00 0.01 0.00 0.00 0.00 0.00 0.00 0.00 0.00 0.00 0.00 0.00 0.00 0.00 0.00
0.00 0.00 0.02 0.03 0.03 0.01 0.01 0.01 0.00 0.00 0.00 0.00 0.00 0.00 0.00 0.00 0.00 0.00 0.00 0.00 0.00 0.00 0.00 0.00 0.00 0.00 0.00 0.00 0.00 0.00 0.00 0.00 0.00 0.00 0.00 0.00 0.00 0.00 0.00 0.00 0.00 0.00 0.00 0.00
0.00 0.00 0.00 0.00 0.01 0.00 0.00 0.00 0.00 0.00 0.00 0.00 0.00 0.00 0.00 0.00 0.00 0.00 0.00 0.00 0.00 0.00 0.00 0.00 0.00 0.00 0.00 0.00 0.00 0.00 0.00 0.00 0.00 0.00 0.00 0.00 0.00 0.00 0.00 0.00 0.00 0.00 0.01 0.01
0.00 0.00 0.00 0.01 0.01 0.00 0.00 0.00 0.00 0.00 0.00 0.00 0.00 0.00 0.00 0.00 0.00 0.00 0.00 0.00 0.00 0.00 0.00 0.00 0.00 0.00 0.00 0.00 0.00 0.00 0.00 0.00 0.00 0.00 0.00 0.00 0.00 0.00 0.00 0.00 0.00 0.01 0.02 0.02
0.00 0.00 0.00 0.00 0.00 0.00 0.00 0.00 0.00 0.00 0.00 0.00 0.00 0.00 0.00 0.00 0.00 0.00 0.00 0.00 0.00 0.00 0.00 0.00 0.00 0.00 0.00 0.00 0.00 0.00 0.00 0.00 0.00 0.00 0.00 0.00 0.00 0.00 0.00 0.00 0.00 0.00 0.00 0.00

GFSCGP_prec_precacc12_135.txt.gz
Total_Precipitation_Accumulation
0.00 0.00 0.00 0.00 0.00 0.00 0.00 0.00 0.00 0.00 0.00 0.00 0.00 0.00 0.00 0.00 0.00 0.00 0.00 0.00 0.00 0.00 0.00 0.00 0.00 0.00 0.00 0.00 0.00 0.00 0.00 0.00 0.00 0.04 0.14 0.15 0.15 0.15 0.15 0.20 0.25 0.21 0.07 0.00
0.00 0.00 0.00 0.00 0.00 0.00 0.00 0.00 0.00 0.00 0.00 0.00 0.00 0.00 0.00 0.00 0.00 0.00 0.00 0.00 0.00 0.00 0.00 0.00 0.00 0.00 0.00 0.00 0.00 0.00 0.00 0.00 0.00 0.00 0.04 0.12 0.17 0.17 0.08 0.08 0.21 0.28 0.15 0.03
0.00 0.00 0.00 0.00 0.00 0.00 0.00 0.00 0.00 0.00 0.00 0.00 0.00 0.00 0.00 0.00 0.00 0.00 0.00 0.00 0.00 0.00 0.00 0.00 0.00 0.00 0.00 0.00 0.00 0.00 0.00 0.00 0.02 0.01 0.08 0.16 0.16 0.18 0.18 0.18 0.09 0.05 0.13 0.03
0.00 0.00 0.00 0.00 0.00 0.00 0.00 0.00 0.00 0.00 0.00 0.00 0.00 0.00 0.00 0.00 0.00 0.00 0.00 0.00 0.00 0.00 0.00 0.00 0.00 0.00 0.00 0.00 0.00 0.00 0.00 0.00 0.04 0.14 0.31 0.28 0.23 0.24 0.10 0.04 0.07 0.07 0.18 0.10
0.00 0.00 0.00 0.00 0.00 0.00 0.00 0.00 0.00 0.00 0.00 0.00 0.00 0.00 0.00 0.00 0.00 0.00 0.01 0.01 0.01 0.01 0.02 0.01 0.01 0.01 0.00 0.00 0.00 0.00 0.00 0.00 0.01 0.09 0.40 0.47 0.42 0.19 0.11 0.14 0.26 0.25 0.20 0.23
0.00 0.00 0.00 0.00 0.00 0.00 0.00 0.00 0.00 0.00 0.00 0.00 0.00 0.00 0.01 0.02 0.04 0.02 0.02 0.03 0.04 0.05 0.05 0.04 0.04 0.04 0.03 0.04 0.04 0.01 0.01 0.00 0.00 0.01 0.12 0.41 0.79 1.20 1.40 1.16 0.76 0.52 0.44 0.46
0.00 0.00 0.00 0.00 0.00 0.00 0.00 0.00 0.00 0.00 0.00 0.00 0.00 0.00 0.02 0.03 0.05 0.09 0.08 0.07 0.09 0.08 0.09 0.08 0.08 0.07 0.07 0.09 0.13 0.14 0.07 0.04 0.02 0.03 0.06 0.16 0.30 0.61 1.11 1.78 2.48 2.37 1.83 1.65
0.00 0.00 0.00 0.00 0.00 0.00 0.00 0.00 0.00 0.00 0.00 0.00 0.00 0.04 0.08 0.11 0.08 0.10 0.14 0.16 0.16 0.15 0.13 0.11 0.13 0.11 0.12 0.13 0.17 0.21 0.20 0.18 0.09 0.07 0.09 0.19 0.19 0.23 0.51 0.67 1.02 1.86 2.42 2.17
0.00 0.00 0.00 0.00 0.00 0.00 0.00 0.00 0.00 0.00 0.00 0.00 0.02 0.05 0.10 0.04 0.07 0.09 0.15 0.18 0.37 0.46 0.30 0.19 0.17 0.23 0.31 0.26 0.21 0.29 0.33 0.47 0.39 0.24 0.17 0.20 0.23 0.19 0.22 0.31 0.68 0.96 0.91 1.08
0.00 0.00 0.00 0.00 0.00 0.00 0.00 0.00 0.02 0.04 0.02 0.02 0.03 0.07 0.06 0.02 0.04 0.07 0.15 0.25 0.27 0.39 0.47 0.30 0.26 0.32 0.31 0.41 0.27 0.36 0.62 0.91 0.63 0.55 0.42 0.37 0.36 0.26 0.19 0.11 0.21 0.52 0.92 0.95
0.00 0.01 0.00 0.00 0.00 0.01 0.03 0.01 0.01 0.03 0.02 0.04 0.04 0.09 0.06 0.05 0.07 0.09 0.13 0.23 0.38 0.33 0.58 0.58 0.40 0.43 0.59 0.76 0.33 0.39 0.75 1.48 1.24 0.78 0.52 0.55 0.32 0.42 0.20 0.13 0.10 0.22 0.31 0.49
0.00 0.02 0.01 0.00 0.00 0.00 0.01 0.03 0.05 0.10 0.07 0.10 0.15 0.16 0.06 0.06 0.06 0.06 0.06 0.10 0.16 0.29 0.48 0.78 0.63 0.54 0.75 0.41 0.43 0.39 0.42 0.45 1.27 1.02 0.65 0.46 0.20 0.16 0.19 0.12 0.10 0.08 0.12 0.13
0.01 0.02 0.01 0.02 0.04 0.01 0.01 0.04 0.06 0.12 0.12 0.10 0.11 0.12 0.05 0.04 0.04 0.04 0.05 0.09 0.13 0.16 0.28 0.48 0.56 0.63 0.89 0.54 0.60 0.56 0.56 0.40 0.45 0.48 0.59 0.35 0.14 0.04 0.04 0.13 0.15 0.07 0.11 0.08
0.02 0.02 0.02 0.12 0.09 0.02 0.01 0.00 0.01 0.07 0.17 0.17 0.10 0.07 0.04 0.03 0.04 0.04 0.05 0.09 0.13 0.15 0.13 0.16 0.27 0.40 0.74 0.88 0.60 0.60 0.68 0.68 0.43 0.40 0.25 0.42 0.23 0.05 0.03 0.03 0.09 0.08 0.04 0.09
0.01 0.03 0.06 0.02 0.01 0.01 0.03 0.04 0.02 0.02 0.06 0.11 0.06 0.02 0.03 0.04 0.05 0.06 0.08 0.13 0.12 0.05 0.02 0.01 0.02 0.07 0.24 0.41 0.37 0.38 0.27 0.31 0.42 0.42 0.36 0.19 0.11 0.04 0.02 0.01 0.02 0.01 0.03 0.05
0.01 0.02 0.03 0.06 0.02 0.02 0.03 0.04 0.05 0.03 0.02 0.01 0.01 0.03 0.04 0.04 0.05 0.08 0.10 0.11 0.10 0.03 0.00 0.00 0.01 0.00 0.01 0.02 0.05 0.08 0.10 0.04 0.04 0.05 0.10 0.14 0.05 0.03 0.01 0.00 0.00 0.01 0.01 0.01
0.01 0.03 0.03 0.08 0.04 0.06 0.08 0.06 0.06 0.02 0.01 0.01 0.02 0.02 0.03 0.04 0.04 0.07 0.06 0.04 0.03 0.02 0.01 0.01 0.01 0.01 0.01 0.01 0.01 0.00 0.01 0.01 0.02 0.02 0.01 0.00 0.01 0.01 0.01 0.00 0.00 0.00 0.00 0.00
0.02 0.02 0.05 0.10 0.08 0.15 0.05 0.03 0.04 0.02 0.02 0.01 0.01 0.02 0.01 0.02 0.03 0.02 0.01 0.01 0.01 0.00 0.00 0.00 0.01 0.01 0.01 0.00 0.00 0.00 0.00 0.00 0.00 0.00 0.00 0.00 0.00 0.00 0.00 0.00 0.00 0.00 0.00 0.00
0.03 0.05 0.06 0.10 0.12 0.08 0.04 0.01 0.03 0.04 0.02 0.01 0.01 0.01 0.01 0.01 0.01 0.00 0.00 0.00 0.01 0.00 0.00 0.00 0.00 0.00 0.00 0.00 0.00 0.00 0.00 0.00 0.00 0.00 0.00 0.00 0.00 0.00 0.00 0.00 0.00 0.00 0.00 0.00
0.00 0.00 0.04 0.04 0.11 0.12 0.03 0.00 0.00 0.00 0.03 0.00 0.00 0.00 0.01 0.01 0.03 0.01 0.00 0.00 0.00 0.00 0.00 0.00 0.00 0.00 0.00 0.00 0.00 0.00 0.00 0.00 0.01 0.00 0.01 0.00 0.00 0.00 0.01 0.00 0.01 0.00 0.01 0.01
0.01 0.01 0.03 0.04 0.08 0.07 0.00 0.00 0.00 0.05 0.05 0.00 0.00 0.00 0.00 0.00 0.01 0.00 0.00 0.00 0.00 0.00 0.00 0.00 0.00 0.00 0.00 0.00 0.00 0.00 0.00 0.00 0.00 0.00 0.00 0.00 0.00 0.01 0.01 0.00 0.01 0.01 0.01 0.01
0.00 0.02 0.02 0.03 0.06 0.08 0.00 0.01 0.01 0.01 0.00 0.00 0.00 0.00 0.00 0.00 0.00 0.00 0.00 0.00 0.00 0.00 0.00 0.00 0.00 0.00 0.00 0.00 0.00 0.00 0.00 0.00 0.00 0.00 0.00 0.00 0.00 0.00 0.00 0.00 0.00 0.00 0.00 0.00
0.00 0.00 0.02 0.01 0.02 0.01 0.00 0.01 0.00 0.00 0.00 0.00 0.00 0.00 0.00 0.00 0.00 0.00 0.00 0.00 0.00 0.00 0.00 0.00 0.00 0.00 0.00 0.00 0.00 0.00 0.00 0.00 0.00 0.00 0.00 0.00 0.00 0.00 0.00 0.00 0.00 0.00 0.00 0.00
0.00 0.00 0.00 0.00 0.01 0.00 0.00 0.00 0.00 0.00 0.00 0.00 0.00 0.00 0.00 0.00 0.00 0.00 0.00 0.00 0.00 0.00 0.00 0.00 0.00 0.00 0.00 0.00 0.00 0.00 0.00 0.00 0.00 0.00 0.00 0.00 0.00 0.00 0.00 0.00 0.00 0.00 0.01 0.00
0.00 0.00 0.00 0.01 0.01 0.00 0.00 0.00 0.00 0.00 0.00 0.00 0.00 0.00 0.00 0.00 0.00 0.00 0.00 0.00 0.00 0.00 0.00 0.00 0.00 0.00 0.00 0.00 0.00 0.00 0.00 0.00 0.00 0.00 0.00 0.00 0.00 0.00 0.00 0.00 0.00 0.00 0.01 0.01
0.00 0.00 0.00 0.00 0.00 0.00 0.00 0.00 0.00 0.00 0.00 0.00 0.00 0.00 0.00 0.00 0.00 0.00 0.00 0.00 0.00 0.00 0.00 0.00 0.00 0.00 0.00 0.00 0.00 0.00 0.00 0.00 0.00 0.00 0.00 0.00 0.00 0.00 0.00 0.00 0.00 0.00 0.00 0.00

GFSCGP_prec_precacc12_138.txt.gz
Total_Precipitation_Accumulation
0.00 0.00 0.00 0.00 0.00 0.00 0.00 0.00 0.00 0.00 0.00 0.00 0.00 0.00 0.00 0.00 0.00 0.00 0.00 0.00 0.00 0.00 0.00 0.00 0.00 0.00 0.00 0.00 0.00 0.00 0.00 0.00 0.00 0.04 0.14 0.15 0.15 0.15 0.15 0.20 0.32 0.47 0.57 0.54
0.00 0.00 0.00 0.00 0.00 0.00 0.00 0.00 0.00 0.00 0.00 0.00 0.00 0.00 0.00 0.00 0.00 0.00 0.00 0.00 0.00 0.00 0.00 0.00 0.00 0.00 0.00 0.00 0.00 0.00 0.00 0.00 0.00 0.00 0.04 0.12 0.17 0.17 0.08 0.08 0.22 0.34 0.30 0.41
0.00 0.00 0.00 0.00 0.00 0.00 0.00 0.00 0.00 0.00 0.00 0.00 0.00 0.00 0.00 0.00 0.00 0.00 0.00 0.00 0.00 0.00 0.00 0.00 0.00 0.00 0.00 0.00 0.00 0.00 0.00 0.00 0.01 0.01 0.07 0.14 0.16 0.18 0.18 0.18 0.09 0.05 0.19 0.20
0.00 0.00 0.00 0.00 0.00 0.00 0.00 0.00 0.00 0.00 0.00 0.00 0.00 0.00 0.00 0.00 0.00 0.00 0.00 0.00 0.00 0.00 0.00 0.00 0.00 0.00 0.00 0.00 0.00 0.00 0.00 0.00 0.03 0.10 0.24 0.25 0.23 0.24 0.10 0.04 0.07 0.06 0.20 0.25
0.00 0.00 0.00 0.00 0.00 0.00 0.00 0.00 0.00 0.00 0.00 0.00 0.00 0.00 0.00 0.00 0.00 0.00 0.00 0.00 0.00 0.00 0.01 0.01 0.01 0.01 0.00 0.00 0.00 0.00 0.00 0.00 0.00 0.04 0.18 0.34 0.39 0.19 0.11 0.14 0.26 0.24 0.20 0.27
0.00 0.00 0.00 0.00 0.00 0.00 0.00 0.00 0.00 0.00 0.00 0.00 0.00 0.00 0.00 0.01 0.01 0.00 0.00 0.00 0.00 0.01 0.01 0.01 0.02 0.02 0.01 0.02 0.03 0.01 0.01 0.00 0.00 0.01 0.09 0.21 0.66 1.19 1.40 1.16 0.76 0.52 0.45 0.48
0.00 0.00 0.00 0.00 0.00 0.00 0.00 0.00 0.00 0.00 0.00 0.00 0.00 0.00 0.00 0.00 0.00 0.01 0.01 0.01 0.01 0.01 0.01 0.02 0.03 0.04 0.04 0.05 0.08 0.11 0.06 0.04 0.02 0.02 0.06 0.16 0.29 0.60 1.12 1.77 2.48 2.36 1.83 1.68
0.00 0.00 0.00 0.00 0.00 0.00 0.00 0.00 0.00 0.00 0.00 0.00 0.00 0.01 0.01 0.01 0.00 0.00 0.01 0.01 0.01 0.02 0.03 0.03 0.05 0.07 0.09 0.11 0.13 0.20 0.19 0.18 0.10 0.07 0.09 0.19 0.18 0.23 0.51 0.67 1.01 1.86 2.45 2.19
0.00 0.00 0.00 0.00 0.00 0.00 0.00 0.00 0.00 0.00 0.00 0.00 0.01 0.01 0.01 0.00 0.00 0.00 0.01 0.02 0.04 0.09 0.10 0.07 0.08 0.15 0.25 0.22 0.19 0.31 0.34 0.46 0.38 0.24 0.17 0.20 0.23 0.18 0.22 0.33 0.69 0.96 0.92 1.11
0.00 0.00 0.00 0.00 0.00 0.00 0.00 0.00 0.01 0.04 0.01 0.02 0.02 0.04 0.02 0.00 0.00 0.00 0.02 0.04 0.07 0.12 0.19 0.16 0.17 0.26 0.30 0.38 0.26 0.36 0.60 0.90 0.62 0.57 0.48 0.43 0.39 0.29 0.28 0.19 0.30 0.55 0.95 0.96
0.00 0.00 0.00 0.00 0.00 0.00 0.02 0.01 0.01 0.02 0.02 0.03 0.02 0.05 0.01 0.01 0.01 0.01 0.02 0.04 0.09 0.14 0.21 0.30 0.25 0.31 0.54 0.76 0.32 0.39 0.75 1.49 1.32 0.88 0.69 0.72 0.49 0.65 0.43 0.32 0.25 0.32 0.39 0.54
0.00 0.00 0.00 0.00 0.00 0.00 0.00 0.02 0.04 0.08 0.06 0.09 0.13 0.12 0.01 0.01 0.01 0.01 0.01 0.02 0.04 0.09 0.18 0.33 0.32 0.35 0.67 0.40 0.44 0.41 0.46 0.51 1.48 1.38 1.05 0.87 0.88 1.05 0.57 0.33 0.21 0.12 0.19 0.28
0.01 0.01 0.01 0.02 0.03 0.01 0.02 0.02 0.03 0.07 0.10 0.08 0.10 0.09 0.01 0.00 0.00 0.00 0.01 0.03 0.05 0.07 0.12 0.26 0.32 0.33 0.52 0.39 0.54 0.56 0.62 0.45 0.55 0.81 1.15 0.91 0.62 0.52 0.62 0.30 0.20 0.07 0.12 0.21
0.01 0.02 0.02 0.12 0.08 0.01 0.00 0.00 0.00 0.01 0.12 0.15 0.08 0.04 0.02 0.00 0.00 0.00 0.01 0.02 0.05 0.07 0.06 0.07 0.12 0.21 0.47 0.56 0.42 0.52 0.68 0.66 0.48 0.59 0.48 1.00 0.90 0.23 0.13 0.18 0.12 0.11 0.04 0.09
0.01 0.03 0.02 0.01 0.01 0.01 0.03 0.02 0.01 0.01 0.02 0.06 0.04 0.01 0.00 0.01 0.01 0.01 0.01 0.03 0.05 0.04 0.02 0.01 0.00 0.01 0.08 0.22 0.26 0.31 0.24 0.31 0.43 0.44 0.38 0.23 0.30 0.17 0.07 0.03 0.02 0.02 0.03 0.04
0.01 0.03 0.02 0.05 0.01 0.00 0.01 0.01 0.02 0.01 0.01 0.00 0.00 0.01 0.01 0.01 0.00 0.01 0.03 0.03 0.04 0.01 0.00 0.00 0.00 0.00 0.00 0.02 0.05 0.08 0.09 0.04 0.04 0.05 0.11 0.16 0.08 0.04 0.02 0.01 0.00 0.01 0.00 0.01
0.02 0.03 0.02 0.05 0.01 0.03 0.04 0.01 0.01 0.01 0.00 0.01 0.01 0.00 0.00 0.01 0.01 0.01 0.02 0.01 0.01 0.00 0.00 0.00 0.00 0.01 0.00 0.00 0.00 0.00 0.01 0.01 0.02 0.02 0.01 0.01 0.02 0.02 0.02 0.00 0.00 0.00 0.00 0.00
0.03 0.03 0.05 0.09 0.04 0.11 0.02 0.00 0.00 0.00 0.00 0.00 0.00 0.01 0.01 0.01 0.01 0.00 0.00 0.00 0.00 0.00 0.00 0.00 0.00 0.00 0.00 0.00 0.00 0.00 0.00 0.00 0.00 0.00 0.00 0.00 0.00 0.00 0.00 0.00 0.00 0.00 0.00 0.00
0.04 0.07 0.06 0.11 0.12 0.06 0.01 0.00 0.01 0.01 0.01 0.00 0.00 0.01 0.00 0.00 0.00 0.00 0.00 0.00 0.00 0.00 0.00 0.00 0.00 0.00 0.00 0.00 0.00 0.00 0.00 0.00 0.00 0.00 0.00 0.00 0.00 0.00 0.00 0.00 0.00 0.00 0.00 0.00
0.04 0.03 0.04 0.05 0.12 0.12 0.02 0.00 0.00 0.00 0.02 0.00 0.00 0.00 0.00 0.00 0.02 0.01 0.00 0.00 0.00 0.00 0.00 0.00 0.00 0.00 0.00 0.00 0.00 0.00 0.00 0.00 0.00 0.00 0.00 0.00 0.00 0.00 0.00 0.00 0.00 0.00 0.00 0.00
0.04 0.03 0.02 0.03 0.08 0.07 0.00 0.00 0.00 0.03 0.04 0.00 0.00 0.00 0.00 0.00 0.01 0.00 0.00 0.00 0.00 0.00 0.00 0.00 0.00 0.00 0.00 0.00 0.00 0.00 0.00 0.00 0.00 0.00 0.00 0.00 0.00 0.00 0.00 0.00 0.00 0.00 0.00 0.00
0.01 0.01 0.02 0.02 0.05 0.07 0.00 0.00 0.01 0.01 0.00 0.00 0.00 0.00 0.00 0.00 0.00 0.00 0.00 0.00 0.00 0.00 0.00 0.00 0.00 0.00 0.00 0.00 0.00 0.00 0.00 0.00 0.00 0.00 0.00 0.00 0.00 0.00 0.00 0.00 0.00 0.00 0.00 0.00
0.00 0.00 0.02 0.01 0.02 0.00 0.00 0.00 0.00 0.00 0.00 0.00 0.00 0.00 0.00 0.00 0.00 0.00 0.00 0.00 0.00 0.00 0.00 0.00 0.00 0.00 0.00 0.00 0.00 0.00 0.00 0.00 0.00 0.00 0.00 0.00 0.00 0.00 0.00 0.00 0.00 0.00 0.00 0.00
0.00 0.00 0.00 0.00 0.00 0.00 0.00 0.00 0.00 0.00 0.00 0.00 0.00 0.00 0.00 0.00 0.00 0.00 0.00 0.00 0.00 0.00 0.00 0.00 0.00 0.00 0.00 0.00 0.00 0.00 0.00 0.00 0.00 0.00 0.00 0.00 0.00 0.00 0.00 0.00 0.00 0.00 0.00 0.00
0.00 0.00 0.00 0.00 0.00 0.00 0.00 0.00 0.00 0.00 0.00 0.00 0.00 0.00 0.00 0.00 0.00 0.00 0.00 0.00 0.00 0.00 0.00 0.00 0.00 0.00 0.00 0.00 0.00 0.00 0.00 0.00 0.00 0.00 0.00 0.00 0.00 0.00 0.00 0.00 0.00 0.00 0.01 0.00
0.00 0.00 0.00 0.00 0.00 0.00 0.00 0.00 0.00 0.00 0.00 0.00 0.00 0.00 0.00 0.00 0.00 0.00 0.00 0.00 0.00 0.00 0.00 0.00 0.00 0.00 0.00 0.00 0.00 0.00 0.00 0.00 0.00 0.00 0.00 0.00 0.00 0.00 0.00 0.00 0.00 0.00 0.00 0.00

GFSCGP_prec_precacc12_141.txt.gz
Total_Precipitation_Accumulation
0.00 0.00 0.00 0.00 0.00 0.00 0.00 0.00 0.00 0.00 0.00 0.00 0.00 0.00 0.00 0.00 0.00 0.00 0.00 0.00 0.00 0.00 0.00 0.00 0.00 0.00 0.00 0.00 0.00 0.00 0.00 0.00 0.00 0.03 0.11 0.14 0.15 0.15 0.15 0.20 0.32 0.48 0.59 0.64
0.00 0.00 0.00 0.00 0.00 0.00 0.00 0.00 0.00 0.00 0.00 0.00 0.00 0.00 0.00 0.00 0.00 0.00 0.00 0.00 0.00 0.00 0.00 0.00 0.00 0.00 0.00 0.00 0.00 0.00 0.00 0.00 0.00 0.00 0.04 0.11 0.17 0.17 0.08 0.08 0.22 0.34 0.30 0.43
0.00 0.00 0.00 0.00 0.00 0.00 0.00 0.00 0.00 0.00 0.00 0.00 0.00 0.00 0.00 0.00 0.00 0.00 0.00 0.00 0.00 0.00 0.00 0.00 0.00 0.00 0.00 0.00 0.00 0.00 0.00 0.00 0.00 0.00 0.06 0.13 0.16 0.18 0.18 0.18 0.09 0.05 0.19 0.20
0.00 0.00 0.00 0.00 0.00 0.00 0.00 0.00 0.00 0.00 0.00 0.00 0.00 0.00 0.00 0.00 0.00 0.00 0.00 0.00 0.00 0.00 0.00 0.00 0.00 0.00 0.00 0.00 0.00 0.00 0.00 0.00 0.00 0.00 0.03 0.13 0.20 0.24 0.11 0.05 0.07 0.06 0.20 0.25
0.00 0.00 0.00 0.00 0.00 0.00 0.00 0.00 0.00 0.00 0.00 0.00 0.00 0.00 0.00 0.00 0.00 0.00 0.00 0.00 0.00 0.00 0.00 0.00 0.00 0.00 0.00 0.00 0.00 0.00 0.00 0.00 0.00 0.00 0.00 0.07 0.15 0.11 0.08 0.13 0.24 0.24 0.20 0.27
0.00 0.00 0.00 0.00 0.00 0.00 0.00 0.00 0.00 0.00 0.00 0.00 0.00 0.00 0.00 0.00 0.00 0.00 0.00 0.00 0.00 0.00 0.00 0.00 0.00 0.00 0.00 0.00 0.00 0.00 0.00 0.00 0.00 0.00 0.01 0.05 0.13 0.28 0.58 0.56 0.58 0.50 0.42 0.46
0.00 0.00 0.00 0.00 0.00 0.00 0.00 0.00 0.00 0.00 0.00 0.00 0.00 0.00 0.00 0.00 0.00 0.00 0.00 0.00 0.00 0.00 0.00 0.00 0.00 0.00 0.01 0.01 0.01 0.02 0.02 0.02 0.01 0.01 0.02 0.06 0.13 0.27 0.42 0.65 1.44 2.17 1.81 1.69
0.00 0.00 0.00 0.00 0.00 0.00 0.00 0.00 0.00 0.00 0.00 0.00 0.00 0.00 0.00 0.00 0.00 0.00 0.00 0.00 0.00 0.00 0.01 0.01 0.01 0.02 0.04 0.06 0.04 0.05 0.07 0.10 0.08 0.06 0.06 0.10 0.12 0.16 0.40 0.51 0.71 1.75 2.45 2.21
0.00 0.00 0.00 0.00 0.00 0.00 0.00 0.00 0.00 0.00 0.00 0.00 0.00 0.00 0.01 0.00 0.00 0.00 0.00 0.00 0.00 0.00 0.01 0.01 0.02 0.05 0.14 0.13 0.10 0.16 0.22 0.36 0.30 0.21 0.16 0.18 0.19 0.16 0.20 0.31 0.65 0.93 0.95 1.16
0.00 0.00 0.00 0.00 0.00 0.00 0.00 0.00 0.00 0.01 0.01 0.01 0.00 0.03 0.01 0.00 0.00 0.00 0.00 0.00 0.00 0.01 0.01 0.01 0.03 0.09 0.13 0.25 0.16 0.24 0.48 0.82 0.59 0.51 0.44 0.38 0.38 0.28 0.29 0.18 0.29 0.56 1.00 1.03
0.00 0.00 0.00 0.00 0.00 0.00 0.00 0.00 0.00 0.01 0.01 0.01 0.00 0.02 0.00 0.00 0.00 0.00 0.00 0.00 0.01 0.01 0.02 0.04 0.04 0.11 0.31 0.58 0.25 0.31 0.68 1.45 1.28 0.89 0.74 0.74 0.50 0.65 0.44 0.39 0.36 0.45 0.50 0.67
0.00 0.00 0.00 0.00 0.00 0.00 0.00 0.00 0.03 0.09 0.03 0.04 0.08 0.08 0.00 0.00 0.00 0.00 0.00 0.00 0.00 0.01 0.03 0.07 0.09 0.10 0.24 0.28 0.39 0.37 0.43 0.51 1.52 1.43 1.17 1.00 1.01 1.23 0.73 0.61 0.48 0.47 0.51 0.41
0.00 0.01 0.01 0.02 0.03 0.01 0.03 0.02 0.01 0.03 0.05 0.04 0.07 0.05 0.00 0.00 0.00 0.00 0.00 0.00 0.00 0.01 0.02 0.06 0.11 0.12 0.19 0.22 0.45 0.53 0.61 0.45 0.55 0.85 1.28 1.04 0.86 1.06 1.26 0.94 0.81 0.35 0.34 0.29
0.01 0.02 0.02 0.12 0.08 0.02 0.00 0.02 0.03 0.04 0.03 0.04 0.06 0.02 0.01 0.00 0.00 0.00 0.00 0.00 0.01 0.02 0.03 0.03 0.05 0.08 0.20 0.27 0.21 0.38 0.62 0.64 0.44 0.47 0.45 1.11 1.07 0.35 0.47 0.90 0.64 0.31 0.13 0.19
0.01 0.03 0.02 0.02 0.02 0.03 0.04 0.03 0.01 0.02 0.02 0.04 0.02 0.00 0.00 0.00 0.00 0.00 0.00 0.00 0.00 0.00 0.01 0.01 0.00 0.00 0.03 0.10 0.10 0.11 0.11 0.23 0.35 0.36 0.30 0.23 0.37 0.28 0.09 0.08 0.20 0.18 0.05 0.07
0.03 0.04 0.03 0.05 0.03 0.04 0.06 0.02 0.01 0.00 0.00 0.00 0.00 0.00 0.00 0.00 0.00 0.00 0.00 0.00 0.00 0.00 0.00 0.00 0.00 0.00 0.00 0.01 0.02 0.06 0.06 0.02 0.02 0.04 0.10 0.16 0.08 0.08 0.07 0.03 0.01 0.01 0.00 0.00
0.06 0.08 0.04 0.03 0.00 0.04 0.06 0.00 0.00 0.00 0.00 0.00 0.00 0.00 0.00 0.00 0.00 0.00 0.00 0.00 0.00 0.00 0.00 0.00 0.00 0.00 0.00 0.00 0.00 0.00 0.01 0.01 0.02 0.02 0.01 0.01 0.02 0.02 0.02 0.02 0.01 0.01 0.01 0.00
0.04 0.05 0.08 0.07 0.04 0.09 0.01 0.00 0.00 0.00 0.00 0.00 0.00 0.00 0.00 0.00 0.00 0.00 0.00 0.00 0.00 0.00 0.00 0.00 0.00 0.00 0.00 0.00 0.00 0.00 0.00 0.00 0.00 0.00 0.00 0.00 0.00 0.00 0.00 0.00 0.00 0.00 0.00 0.00
0.06 0.10 0.08 0.09 0.09 0.03 0.00 0.00 0.00 0.00 0.00 0.00 0.00 0.00 0.00 0.00 0.00 0.00 0.00 0.00 0.00 0.00 0.00 0.00 0.00 0.00 0.00 0.00 0.00 0.00 0.00 0.00 0.00 0.00 0.00 0.00 0.00 0.00 0.00 0.00 0.00 0.00 0.00 0.00
0.08 0.08 0.07 0.06 0.11 0.10 0.01 0.00 0.00 0.00 0.00 0.00 0.00 0.00 0.00 0.00 0.01 0.00 0.00 0.00 0.00 0.00 0.00 0.00 0.00 0.00 0.00 0.00 0.00 0.00 0.00 0.00 0.00 0.00 0.00 0.00 0.00 0.00 0.00 0.00 0.00 0.00 0.00 0.00
0.08 0.17 0.15 0.05 0.06 0.05 0.00 0.00 0.00 0.00 0.01 0.00 0.00 0.00 0.00 0.00 0.00 0.00 0.00 0.00 0.00 0.00 0.00 0.00 0.00 0.00 0.00 0.00 0.00 0.00 0.00 0.00 0.00 0.00 0.00 0.00 0.00 0.00 0.00 0.00 0.00 0.00 0.00 0.00
0.02 0.05 0.08 0.03 0.04 0.05 0.00 0.00 0.00 0.00 0.00 0.00 0.00 0.00 0.00 0.00 0.00 0.00 0.00 0.00 0.00 0.00 0.00 0.00 0.00 0.00 0.00 0.00 0.00 0.00 0.00 0.00 0.00 0.00 0.00 0.00 0.00 0.00 0.00 0.00 0.00 0.00 0.00 0.00
0.00 0.00 0.02 0.00 0.01 0.00 0.00 0.00 0.00 0.00 0.00 0.00 0.00 0.00 0.00 0.00 0.00 0.00 0.00 0.00 0.00 0.00 0.00 0.00 0.00 0.00 0.00 0.00 0.00 0.00 0.00 0.00 0.00 0.00 0.00 0.00 0.00 0.00 0.00 0.00 0.00 0.00 0.00 0.00
0.00 0.00 0.00 0.00 0.00 0.00 0.00 0.00 0.00 0.00 0.00 0.00 0.00 0.00 0.00 0.00 0.00 0.00 0.00 0.00 0.00 0.00 0.00 0.00 0.00 0.00 0.00 0.00 0.00 0.00 0.00 0.00 0.00 0.00 0.00 0.00 0.00 0.00 0.00 0.00 0.00 0.00 0.00 0.00
0.00 0.00 0.00 0.00 0.00 0.00 0.00 0.00 0.00 0.00 0.00 0.00 0.00 0.00 0.00 0.00 0.00 0.00 0.00 0.01 0.01 0.00 0.00 0.00 0.00 0.00 0.00 0.00 0.00 0.00 0.00 0.00 0.00 0.00 0.00 0.00 0.00 0.00 0.00 0.00 0.00 0.00 0.01 0.01
0.00 0.00 0.00 0.00 0.00 0.00 0.00 0.00 0.00 0.00 0.00 0.00 0.00 0.00 0.00 0.00 0.00 0.01 0.02 0.02 0.01 0.01 0.00 0.00 0.00 0.00 0.00 0.00 0.00 0.00 0.00 0.00 0.00 0.00 0.00 0.00 0.00 0.00 0.00 0.00 0.00 0.00 0.00 0.01

GFSCGP_prec_precacc12_144.txt.gz
Total_Precipitation_Accumulation
0.00 0.00 0.00 0.00 0.00 0.00 0.00 0.00 0.00 0.00 0.00 0.00 0.00 0.00 0.00 0.00 0.00 0.00 0.00 0.00 0.00 0.00 0.00 0.00 0.00 0.00 0.00 0.00 0.00 0.00 0.00 0.00 0.00 0.00 0.00 0.00 0.02 0.06 0.07 0.20 0.32 0.48 0.59 0.64
0.00 0.00 0.00 0.00 0.00 0.00 0.00 0.00 0.00 0.00 0.00 0.00 0.00 0.00 0.00 0.00 0.00 0.00 0.00 0.00 0.00 0.00 0.00 0.00 0.00 0.00 0.00 0.00 0.00 0.00 0.00 0.00 0.00 0.00 0.00 0.00 0.00 0.05 0.05 0.07 0.22 0.34 0.30 0.43
0.00 0.00 0.00 0.00 0.00 0.00 0.00 0.00 0.00 0.00 0.00 0.00 0.00 0.00 0.00 0.00 0.00 0.00 0.00 0.00 0.00 0.00 0.00 0.00 0.00 0.00 0.00 0.00 0.00 0.00 0.00 0.00 0.00 0.00 0.00 0.00 0.00 0.00 0.04 0.10 0.08 0.05 0.19 0.21
0.00 0.00 0.00 0.00 0.00 0.00 0.00 0.00 0.00 0.00 0.00 0.00 0.00 0.00 0.00 0.00 0.00 0.00 0.00 0.00 0.00 0.00 0.00 0.00 0.00 0.00 0.00 0.00 0.00 0.00 0.00 0.00 0.00 0.00 0.00 0.00 0.00 0.01 0.01 0.02 0.06 0.07 0.20 0.25
0.00 0.00 0.00 0.00 0.00 0.00 0.00 0.00 0.00 0.00 0.00 0.00 0.00 0.00 0.00 0.00 0.00 0.00 0.00 0.00 0.00 0.00 0.00 0.00 0.00 0.00 0.00 0.00 0.00 0.00 0.00 0.00 0.00 0.00 0.00 0.01 0.01 0.02 0.03 0.08 0.23 0.24 0.20 0.27
0.00 0.00 0.00 0.00 0.00 0.00 0.00 0.00 0.00 0.00 0.00 0.00 0.00 0.00 0.00 0.00 0.00 0.00 0.00 0.00 0.00 0.00 0.00 0.00 0.00 0.00 0.00 0.00 0.00 0.00 0.00 0.00 0.00 0.00 0.01 0.02 0.02 0.02 0.03 0.12 0.25 0.32 0.32 0.39
0.00 0.00 0.00 0.00 0.00 0.00 0.00 0.00 0.00 0.00 0.00 0.00 0.00 0.00 0.00 0.00 0.00 0.00 0.00 0.00 0.00 0.00 0.00 0.00 0.00 0.00 0.00 0.00 0.00 0.00 0.00 0.00 0.00 0.00 0.01 0.04 0.03 0.02 0.03 0.09 0.20 0.68 0.74 0.86
0.00 0.00 0.00 0.00 0.00 0.00 0.00 0.00 0.00 0.00 0.00 0.00 0.00 0.00 0.00 0.00 0.00 0.00 0.00 0.00 0.00 0.00 0.00 0.00 0.00 0.00 0.00 0.01 0.01 0.01 0.02 0.02 0.02 0.02 0.03 0.07 0.07 0.06 0.05 0.16 0.13 0.65 1.16 1.15
0.00 0.00 0.00 0.00 0.00 0.00 0.00 0.00 0.00 0.01 0.01 0.01 0.00 0.00 0.00 0.00 0.00 0.00 0.00 0.00 0.00 0.00 0.00 0.00 0.00 0.00 0.01 0.02 0.04 0.08 0.09 0.13 0.14 0.10 0.11 0.11 0.14 0.12 0.10 0.12 0.30 0.34 0.42 0.79
0.00 0.00 0.00 0.00 0.00 0.00 0.00 0.00 0.00 0.02 0.02 0.00 0.00 0.01 0.00 0.00 0.00 0.00 0.00 0.00 0.00 0.00 0.00 0.00 0.00 0.01 0.03 0.06 0.05 0.11 0.24 0.44 0.34 0.27 0.30 0.33 0.29 0.22 0.24 0.15 0.22 0.37 0.58 0.59
0.00 0.00 0.00 0.00 0.00 0.00 0.00 0.00 0.00 0.01 0.01 0.00 0.00 0.00 0.00 0.00 0.00 0.00 0.00 0.00 0.00 0.01 0.01 0.00 0.00 0.01 0.05 0.09 0.07 0.11 0.31 0.68 0.89 0.67 0.58 0.72 0.51 0.60 0.42 0.31 0.31 0.39 0.48 0.67
0.00 0.00 0.00 0.00 0.00 0.00 0.00 0.00 0.01 0.09 0.04 0.02 0.02 0.03 0.00 0.00 0.00 0.00 0.00 0.00 0.00 0.00 0.01 0.01 0.01 0.01 0.01 0.05 0.15 0.15 0.22 0.31 1.10 1.37 1.17 1.02 1.10 1.27 0.75 0.65 0.53 0.60 0.66 0.60
0.00 0.00 0.00 0.00 0.00 0.01 0.03 0.02 0.02 0.05 0.08 0.07 0.04 0.02 0.00 0.00 0.00 0.00 0.00 0.00 0.00 0.00 0.00 0.00 0.00 0.01 0.03 0.03 0.13 0.23 0.34 0.31 0.43 0.79 1.19 0.95 0.88 1.14 1.44 1.25 1.13 0.84 0.76 0.73
0.02 0.02 0.01 0.06 0.05 0.01 0.00 0.02 0.04 0.10 0.17 0.08 0.02 0.00 0.00 0.00 0.00 0.00 0.00 0.00 0.00 0.00 0.00 0.00 0.00 0.00 0.02 0.03 0.04 0.14 0.29 0.33 0.31 0.43 0.43 1.05 1.03 0.35 0.52 1.04 0.84 0.65 0.52 0.66
0.03 0.03 0.02 0.02 0.02 0.04 0.06 0.03 0.01 0.04 0.07 0.10 0.04 0.01 0.00 0.00 0.00 0.00 0.00 0.00 0.00 0.00 0.00 0.00 0.00 0.00 0.00 0.00 0.00 0.01 0.01 0.10 0.20 0.21 0.19 0.17 0.35 0.27 0.08 0.09 0.25 0.24 0.15 0.26
0.04 0.04 0.04 0.07 0.03 0.05 0.08 0.04 0.03 0.03 0.02 0.02 0.00 0.00 0.00 0.00 0.00 0.00 0.00 0.00 0.00 0.00 0.00 0.00 0.00 0.00 0.00 0.00 0.00 0.01 0.01 0.00 0.01 0.01 0.06 0.11 0.07 0.07 0.07 0.04 0.03 0.03 0.00 0.01
0.08 0.09 0.09 0.07 0.01 0.07 0.09 0.00 0.00 0.00 0.00 0.00 0.00 0.00 0.00 0.00 0.00 0.00 0.00 0.00 0.00 0.00 0.00 0.00 0.00 0.00 0.00 0.00 0.00 0.00 0.00 0.01 0.01 0.01 0.00 0.01 0.02 0.02 0.03 0.02 0.01 0.02 0.02 0.00
0.04 0.10 0.19 0.12 0.06 0.09 0.01 0.00 0.00 0.00 0.00 0.00 0.00 0.00 0.00 0.00 0.00 0.00 0.00 0.00 0.00 0.00 0.00 0.00 0.00 0.00 0.00 0.00 0.00 0.00 0.00 0.00 0.00 0.00 0.00 0.00 0.00 0.00 0.00 0.00 0.00 0.00 0.00 0.00
0.05 0.13 0.18 0.13 0.07 0.02 0.00 0.00 0.00 0.00 0.00 0.00 0.00 0.00 0.00 0.00 0.00 0.00 0.00 0.00 0.00 0.00 0.00 0.00 0.00 0.00 0.00 0.00 0.00 0.00 0.00 0.00 0.00 0.00 0.00 0.00 0.00 0.00 0.00 0.00 0.00 0.00 0.00 0.00
0.08 0.09 0.14 0.10 0.08 0.05 0.00 0.00 0.00 0.00 0.00 0.00 0.00 0.00 0.00 0.00 0.00 0.00 0.00 0.00 0.00 0.00 0.00 0.00 0.00 0.00 0.00 0.00 0.00 0.00 0.00 0.00 0.00 0.00 0.00 0.00 0.00 0.00 0.00 0.00 0.00 0.00 0.00 0.00
0.10 0.22 0.22 0.09 0.08 0.03 0.00 0.00 0.00 0.00 0.00 0.00 0.00 0.00 0.00 0.00 0.00 0.00 0.00 0.00 0.00 0.00 0.00 0.00 0.00 0.00 0.00 0.00 0.00 0.00 0.00 0.00 0.00 0.00 0.00 0.00 0.00 0.00 0.00 0.00 0.00 0.00 0.00 0.00
0.02 0.07 0.10 0.11 0.10 0.03 0.00 0.00 0.00 0.00 0.00 0.00 0.00 0.00 0.00 0.00 0.00 0.00 0.00 0.00 0.00 0.00 0.00 0.00 0.00 0.00 0.00 0.00 0.00 0.00 0.00 0.00 0.00 0.00 0.00 0.00 0.00 0.00 0.00 0.00 0.00 0.00 0.00 0.00
0.01 0.00 0.00 0.01 0.01 0.00 0.00 0.00 0.00 0.00 0.00 0.00 0.00 0.00 0.00 0.00 0.00 0.00 0.00 0.00 0.00 0.00 0.00 0.00 0.00 0.00 0.00 0.00 0.00 0.00 0.00 0.00 0.00 0.00 0.00 0.00 0.00 0.00 0.00 0.00 0.00 0.00 0.00 0.00
0.00 0.00 0.00 0.00 0.00 0.00 0.00 0.00 0.00 0.00 0.00 0.00 0.00 0.00 0.00 0.00 0.00 0.00 0.00 0.00 0.01 0.00 0.00 0.00 0.00 0.00 0.00 0.00 0.00 0.00 0.00 0.00 0.00 0.00 0.00 0.00 0.00 0.00 0.00 0.00 0.00 0.00 0.00 0.00
0.01 0.00 0.00 0.00 0.00 0.00 0.00 0.00 0.00 0.00 0.00 0.00 0.00 0.00 0.00 0.00 0.00 0.00 0.00 0.02 0.02 0.00 0.00 0.00 0.00 0.00 0.00 0.00 0.00 0.00 0.00 0.00 0.00 0.00 0.00 0.00 0.00 0.00 0.00 0.00 0.00 0.00 0.02 0.01
0.00 0.00 0.00 0.00 0.00 0.00 0.00 0.00 0.00 0.00 0.00 0.00 0.00 0.00 0.00 0.00 0.00 0.01 0.02 0.02 0.02 0.01 0.01 0.00 0.00 0.00 0.00 0.00 0.00 0.00 0.00 0.00 0.00 0.00 0.00 0.00 0.00 0.00 0.00 0.00 0.00 0.00 0.00 0.01

GFSCGP_prec_precacc12_147.txt.gz
Total_Precipitation_Accumulation
0.00 0.00 0.00 0.00 0.00 0.00 0.00 0.00 0.00 0.00 0.00 0.00 0.00 0.00 0.00 0.00 0.00 0.00 0.00 0.00 0.00 0.00 0.00 0.00 0.00 0.00 0.00 0.00 0.00 0.00 0.00 0.00 0.00 0.00 0.00 0.00 0.00 0.00 0.00 0.00 0.07 0.27 0.51 0.64
0.00 0.00 0.00 0.00 0.00 0.00 0.00 0.00 0.00 0.00 0.00 0.00 0.00 0.00 0.00 0.00 0.00 0.00 0.00 0.00 0.00 0.00 0.00 0.00 0.00 0.00 0.00 0.00 0.00 0.00 0.00 0.00 0.00 0.00 0.00 0.00 0.00 0.00 0.00 0.00 0.01 0.07 0.15 0.40
0.00 0.00 0.00 0.00 0.00 0.00 0.00 0.00 0.00 0.00 0.00 0.00 0.00 0.00 0.00 0.00 0.00 0.00 0.00 0.00 0.00 0.00 0.00 0.00 0.00 0.00 0.00 0.00 0.00 0.00 0.00 0.00 0.00 0.00 0.00 0.00 0.00 0.00 0.00 0.00 0.00 0.01 0.06 0.17
0.00 0.00 0.00 0.00 0.00 0.00 0.00 0.00 0.00 0.00 0.00 0.00 0.00 0.00 0.00 0.00 0.00 0.00 0.00 0.00 0.00 0.00 0.00 0.00 0.00 0.00 0.00 0.00 0.00 0.00 0.00 0.00 0.00 0.00 0.00 0.00 0.00 0.01 0.01 0.01 0.01 0.00 0.03 0.16
0.00 0.00 0.00 0.00 0.00 0.00 0.00 0.00 0.00 0.00 0.00 0.00 0.00 0.00 0.00 0.00 0.00 0.00 0.00 0.00 0.00 0.00 0.00 0.00 0.00 0.00 0.00 0.00 0.00 0.00 0.00 0.00 0.00 0.00 0.00 0.00 0.01 0.02 0.02 0.02 0.02 0.01 0.01 0.05
0.00 0.00 0.00 0.00 0.00 0.00 0.00 0.00 0.00 0.00 0.00 0.00 0.00 0.00 0.00 0.00 0.00 0.00 0.00 0.00 0.00 0.00 0.00 0.00 0.00 0.00 0.00 0.00 0.00 0.00 0.00 0.00 0.00 0.00 0.00 0.01 0.02 0.02 0.02 0.02 0.03 0.01 0.03 0.05
0.00 0.00 0.00 0.00 0.00 0.00 0.00 0.00 0.00 0.00 0.00 0.00 0.00 0.00 0.00 0.00 0.00 0.00 0.00 0.00 0.00 0.00 0.00 0.00 0.00 0.00 0.00 0.00 0.00 0.00 0.00 0.00 0.00 0.00 0.00 0.01 0.02 0.02 0.02 0.03 0.04 0.03 0.03 0.05
0.00 0.00 0.00 0.00 0.00 0.00 0.00 0.00 0.00 0.00 0.00 0.00 0.00 0.00 0.00 0.00 0.00 0.00 0.00 0.00 0.00 0.00 0.00 0.00 0.00 0.00 0.00 0.00 0.00 0.01 0.01 0.02 0.01 0.00 0.01 0.02 0.02 0.03 0.04 0.04 0.04 0.06 0.10 0.09
0.00 0.00 0.00 0.00 0.00 0.00 0.00 0.00 0.00 0.02 0.02 0.04 0.00 0.00 0.00 0.00 0.00 0.00 0.00 0.00 0.00 0.00 0.00 0.00 0.00 0.00 0.00 0.00 0.01 0.06 0.06 0.03 0.03 0.05 0.04 0.03 0.04 0.04 0.06 0.06 0.05 0.06 0.10 0.14
0.00 0.00 0.00 0.00 0.00 0.00 0.00 0.00 0.00 0.03 0.05 0.02 0.00 0.00 0.00 0.00 0.00 0.00 0.00 0.00 0.00 0.00 0.00 0.00 0.00 0.00 0.00 0.01 0.02 0.04 0.04 0.06 0.07 0.07 0.11 0.13 0.12 0.08 0.16 0.14 0.15 0.11 0.14 0.14
0.00 0.00 0.00 0.00 0.00 0.00 0.00 0.00 0.00 0.02 0.02 0.03 0.01 0.00 0.00 0.00 0.00 0.00 0.00 0.00 0.00 0.00 0.00 0.00 0.00 0.00 0.01 0.01 0.02 0.03 0.04 0.07 0.13 0.18 0.28 0.27 0.27 0.31 0.31 0.31 0.31 0.31 0.30 0.32
0.00 0.00 0.00 0.00 0.00 0.00 0.00 0.00 0.02 0.10 0.05 0.04 0.03 0.01 0.00 0.00 0.00 0.00 0.00 0.00 0.00 0.00 0.00 0.00 0.00 0.00 0.00 0.00 0.01 0.03 0.06 0.11 0.30 0.52 0.61 0.62 0.92 1.15 0.64 0.65 0.56 0.62 0.65 0.57
0.00 0.00 0.00 0.00 0.00 0.00 0.03 0.02 0.05 0.06 0.11 0.12 0.13 0.03 0.00 0.00 0.00 0.00 0.00 0.00 0.00 0.00 0.00 0.00 0.00 0.00 0.00 0.00 0.00 0.02 0.08 0.07 0.17 0.43 0.72 0.72 0.78 1.12 1.43 1.17 1.04 0.86 0.80 0.87
0.02 0.01 0.00 0.01 0.01 0.00 0.00 0.02 0.07 0.15 0.24 0.12 0.04 0.00 0.00 0.00 0.00 0.00 0.00 0.00 0.00 0.00 0.00 0.00 0.00 0.00 0.00 0.00 0.00 0.00 0.03 0.04 0.09 0.21 0.26 0.72 0.86 0.33 0.52 1.04 0.77 0.61 0.59 0.80
0.04 0.02 0.01 0.01 0.02 0.03 0.06 0.03 0.01 0.05 0.07 0.11 0.04 0.02 0.00 0.00 0.00 0.00 0.00 0.00 0.00 0.00 0.00 0.00 0.00 0.00 0.00 0.00 0.00 0.00 0.00 0.00 0.01 0.02 0.02 0.05 0.26 0.25 0.08 0.09 0.25 0.24 0.16 0.31
0.06 0.05 0.04 0.07 0.03 0.05 0.08 0.04 0.03 0.03 0.02 0.02 0.01 0.00 0.00 0.00 0.00 0.00 0.00 0.00 0.00 0.00 0.00 0.00 0.00 0.00 0.00 0.00 0.00 0.00 0.00 0.00 0.00 0.00 0.01 0.02 0.03 0.05 0.07 0.04 0.03 0.03 0.00 0.02
0.08 0.10 0.11 0.08 0.01 0.07 0.09 0.00 0.00 0.00 0.00 0.00 0.00 0.00 0.00 0.00 0.00 0.00 0.00 0.00 0.00 0.00 0.00 0.00 0.00 0.00 0.00 0.00 0.00 0.00 0.00 0.00 0.00 0.00 0.00 0.00 0.01 0.01 0.01 0.02 0.01 0.02 0.02 0.00
0.04 0.11 0.21 0.15 0.08 0.09 0.01 0.00 0.00 0.00 0.00 0.00 0.00 0.00 0.00 0.00 0.00 0.00 0.00 0.00 0.00 0.00 0.00 0.00 0.00 0.00 0.00 0.00 0.00 0.00 0.00 0.00 0.00 0.00 0.00 0.00 0.00 0.00 0.00 0.00 0.00 0.00 0.00 0.00
0.03 0.11 0.19 0.16 0.09 0.02 0.00 0.00 0.00 0.00 0.00 0.00 0.00 0.00 0.00 0.00 0.00 0.00 0.00 0.00 0.00 0.00 0.00 0.00 0.00 0.00 0.00 0.00 0.00 0.00 0.00 0.00 0.00 0.00 0.00 0.00 0.00 0.00 0.00 0.00 0.00 0.00 0.00 0.00
0.08 0.10 0.17 0.16 0.11 0.02 0.00 0.00 0.00 0.00 0.00 0.00 0.00 0.00 0.00 0.00 0.00 0.00 0.00 0.00 0.00 0.00 0.00 0.00 0.00 0.00 0.00 0.00 0.00 0.00 0.00 0.00 0.00 0.00 0.00 0.00 0.00 0.00 0.00 0.00 0.00 0.00 0.00 0.00
0.11 0.25 0.27 0.13 0.14 0.02 0.00 0.00 0.00 0.00 0.00 0.00 0.00 0.00 0.00 0.00 0.00 0.00 0.00 0.00 0.00 0.00 0.00 0.00 0.00 0.00 0.00 0.00 0.00 0.00 0.00 0.00 0.00 0.00 0.00 0.00 0.00 0.00 0.00 0.00 0.00 0.00 0.00 0.00
0.03 0.09 0.13 0.13 0.13 0.02 0.00 0.00 0.00 0.00 0.00 0.00 0.00 0.00 0.00 0.00 0.00 0.00 0.00 0.00 0.00 0.00 0.00 0.00 0.00 0.00 0.00 0.00 0.00 0.00 0.00 0.00 0.00 0.00 0.00 0.00 0.00 0.00 0.00 0.00 0.00 0.00 0.00 0.00
0.01 0.00 0.00 0.01 0.02 0.00 0.00 0.00 0.00 0.00 0.00 0.00 0.00 0.00 0.00 0.00 0.00 0.00 0.00 0.00 0.00 0.00 0.00 0.00 0.00 0.00 0.00 0.00 0.00 0.00 0.00 0.00 0.00 0.00 0.00 0.00 0.00 0.00 0.00 0.00 0.00 0.00 0.00 0.00
0.00 0.00 0.00 0.00 0.00 0.00 0.00 0.00 0.00 0.00 0.00 0.00 0.00 0.00 0.00 0.00 0.00 0.00 0.00 0.00 0.01 0.00 0.00 0.00 0.00 0.00 0.00 0.00 0.00 0.00 0.00 0.00 0.00 0.00 0.00 0.00 0.00 0.00 0.00 0.00 0.00 0.00 0.00 0.00
0.01 0.00 0.00 0.00 0.00 0.00 0.00 0.00 0.00 0.00 0.00 0.00 0.00 0.00 0.00 0.00 0.00 0.00 0.00 0.02 0.02 0.00 0.00 0.00 0.00 0.00 0.00 0.00 0.00 0.00 0.00 0.00 0.00 0.00 0.00 0.00 0.00 0.00 0.00 0.00 0.00 0.00 0.02 0.01
0.00 0.00 0.00 0.00 0.00 0.00 0.00 0.00 0.00 0.00 0.00 0.00 0.00 0.00 0.00 0.00 0.00 0.01 0.02 0.02 0.02 0.01 0.01 0.00 0.00 0.00 0.00 0.00 0.00 0.00 0.00 0.00 0.00 0.00 0.00 0.00 0.00 0.00 0.00 0.00 0.00 0.00 0.00 0.01

GFSCGP_prec_precacc12_150.txt.gz
Total_Precipitation_Accumulation
0.00 0.00 0.00 0.00 0.00 0.00 0.00 0.00 0.00 0.00 0.00 0.00 0.00 0.00 0.00 0.00 0.00 0.00 0.00 0.00 0.00 0.00 0.00 0.00 0.00 0.00 0.00 0.00 0.00 0.00 0.00 0.00 0.00 0.00 0.00 0.00 0.00 0.00 0.00 0.00 0.00 0.00 0.01 0.10
0.00 0.00 0.00 0.00 0.00 0.00 0.00 0.00 0.00 0.00 0.00 0.00 0.00 0.00 0.00 0.00 0.00 0.00 0.00 0.00 0.00 0.00 0.00 0.00 0.00 0.00 0.00 0.00 0.00 0.00 0.00 0.00 0.00 0.00 0.00 0.00 0.00 0.00 0.00 0.00 0.00 0.00 0.00 0.03
0.00 0.00 0.00 0.00 0.00 0.00 0.00 0.00 0.00 0.00 0.00 0.00 0.00 0.00 0.00 0.00 0.00 0.00 0.00 0.00 0.00 0.00 0.00 0.00 0.00 0.00 0.00 0.00 0.00 0.00 0.00 0.00 0.00 0.00 0.00 0.00 0.00 0.00 0.00 0.00 0.00 0.00 0.00 0.01
0.00 0.00 0.00 0.00 0.00 0.00 0.00 0.00 0.00 0.00 0.00 0.00 0.00 0.00 0.00 0.00 0.00 0.00 0.00 0.00 0.00 0.00 0.00 0.00 0.00 0.00 0.00 0.00 0.00 0.00 0.00 0.00 0.00 0.00 0.00 0.00 0.00 0.01 0.01 0.02 0.01 0.00 0.00 0.01
0.00 0.00 0.00 0.00 0.00 0.00 0.00 0.00 0.00 0.00 0.00 0.00 0.00 0.00 0.00 0.00 0.00 0.00 0.00 0.00 0.00 0.00 0.00 0.00 0.00 0.00 0.00 0.00 0.00 0.00 0.00 0.00 0.00 0.00 0.00 0.00 0.01 0.02 0.02 0.02 0.02 0.01 0.01 0.00
0.00 0.00 0.00 0.00 0.00 0.00 0.00 0.00 0.00 0.00 0.00 0.00 0.00 0.00 0.00 0.00 0.00 0.00 0.00 0.00 0.00 0.00 0.00 0.00 0.00 0.00 0.00 0.00 0.00 0.00 0.00 0.00 0.00 0.00 0.00 0.01 0.02 0.01 0.02 0.02 0.03 0.02 0.02 0.02
0.00 0.00 0.00 0.00 0.00 0.00 0.00 0.00 0.00 0.00 0.00 0.00 0.00 0.00 0.00 0.00 0.00 0.00 0.00 0.00 0.00 0.00 0.00 0.00 0.00 0.00 0.00 0.00 0.00 0.00 0.00 0.00 0.00 0.00 0.00 0.01 0.02 0.02 0.02 0.03 0.04 0.03 0.02 0.02
0.00 0.00 0.00 0.00 0.00 0.00 0.00 0.00 0.00 0.00 0.00 0.00 0.00 0.00 0.00 0.00 0.00 0.00 0.00 0.00 0.00 0.00 0.00 0.00 0.00 0.00 0.00 0.00 0.00 0.00 0.00 0.00 0.01 0.00 0.01 0.02 0.02 0.02 0.03 0.03 0.03 0.04 0.05 0.06
0.00 0.00 0.00 0.00 0.00 0.00 0.00 0.00 0.00 0.02 0.02 0.05 0.00 0.00 0.00 0.00 0.00 0.00 0.00 0.00 0.00 0.00 0.00 0.00 0.00 0.00 0.00 0.00 0.00 0.01 0.02 0.01 0.02 0.02 0.01 0.02 0.03 0.03 0.04 0.03 0.03 0.04 0.07 0.09
0.00 0.00 0.00 0.00 0.00 0.00 0.00 0.00 0.01 0.05 0.09 0.06 0.01 0.00 0.00 0.00 0.00 0.00 0.00 0.00 0.00 0.00 0.00 0.00 0.00 0.00 0.00 0.00 0.00 0.00 0.01 0.02 0.04 0.03 0.03 0.06 0.08 0.05 0.07 0.05 0.05 0.07 0.11 0.11
0.00 0.00 0.00 0.00 0.00 0.00 0.00 0.01 0.01 0.06 0.05 0.07 0.03 0.00 0.00 0.00 0.00 0.00 0.00 0.00 0.00 0.00 0.00 0.00 0.00 0.00 0.00 0.00 0.00 0.00 0.01 0.03 0.04 0.07 0.10 0.09 0.10 0.08 0.08 0.11 0.16 0.22 0.24 0.28
0.00 0.00 0.00 0.00 0.00 0.00 0.00 0.00 0.02 0.14 0.10 0.10 0.09 0.02 0.00 0.00 0.00 0.00 0.00 0.00 0.00 0.00 0.00 0.00 0.00 0.00 0.00 0.00 0.00 0.00 0.01 0.04 0.08 0.15 0.20 0.20 0.24 0.27 0.27 0.44 0.45 0.58 0.61 0.46
0.00 0.00 0.00 0.00 0.00 0.00 0.02 0.02 0.07 0.09 0.12 0.13 0.17 0.05 0.00 0.00 0.00 0.00 0.00 0.00 0.00 0.00 0.00 0.00 0.00 0.00 0.00 0.00 0.00 0.00 0.00 0.01 0.01 0.05 0.15 0.15 0.29 0.64 0.85 1.01 1.00 0.86 0.79 0.76
0.02 0.00 0.00 0.00 0.01 0.01 0.01 0.02 0.08 0.18 0.29 0.15 0.07 0.01 0.00 0.00 0.00 0.00 0.00 0.00 0.00 0.00 0.00 0.00 0.00 0.00 0.00 0.00 0.00 0.00 0.00 0.00 0.00 0.00 0.02 0.14 0.19 0.16 0.42 0.89 0.74 0.58 0.58 0.81
0.05 0.02 0.00 0.00 0.01 0.03 0.04 0.02 0.01 0.05 0.07 0.13 0.04 0.02 0.00 0.00 0.00 0.00 0.00 0.00 0.00 0.00 0.00 0.00 0.00 0.00 0.00 0.00 0.00 0.00 0.00 0.00 0.00 0.00 0.00 0.01 0.08 0.12 0.04 0.07 0.25 0.23 0.15 0.32
0.09 0.06 0.04 0.04 0.02 0.06 0.08 0.04 0.03 0.03 0.02 0.02 0.01 0.00 0.00 0.00 0.00 0.00 0.00 0.00 0.00 0.00 0.00 0.00 0.00 0.00 0.00 0.00 0.00 0.00 0.00 0.00 0.00 0.00 0.00 0.00 0.00 0.03 0.05 0.03 0.03 0.03 0.00 0.02
0.08 0.10 0.11 0.08 0.02 0.08 0.09 0.00 0.00 0.00 0.00 0.00 0.00 0.00 0.00 0.00 0.00 0.00 0.00 0.00 0.00 0.00 0.00 0.00 0.00 0.00 0.00 0.00 0.00 0.00 0.00 0.00 0.00 0.00 0.00 0.00 0.00 0.00 0.01 0.01 0.01 0.02 0.02 0.00
0.04 0.10 0.22 0.16 0.11 0.11 0.01 0.00 0.00 0.00 0.00 0.00 0.00 0.00 0.00 0.00 0.00 0.00 0.00 0.00 0.00 0.00 0.00 0.00 0.00 0.00 0.00 0.00 0.00 0.00 0.00 0.00 0.00 0.00 0.00 0.00 0.00 0.00 0.00 0.00 0.00 0.00 0.00 0.00
0.02 0.10 0.21 0.18 0.11 0.02 0.00 0.00 0.00 0.00 0.00 0.00 0.00 0.00 0.00 0.00 0.00 0.00 0.00 0.00 0.00 0.00 0.00 0.00 0.00 0.00 0.00 0.00 0.00 0.00 0.00 0.00 0.00 0.00 0.00 0.00 0.00 0.00 0.00 0.00 0.00 0.00 0.00 0.00
0.05 0.10 0.18 0.19 0.13 0.02 0.00 0.00 0.00 0.00 0.00 0.00 0.00 0.00 0.00 0.00 0.00 0.00 0.00 0.00 0.00 0.00 0.00 0.00 0.00 0.00 0.00 0.00 0.00 0.00 0.00 0.00 0.00 0.00 0.00 0.00 0.00 0.00 0.00 0.00 0.00 0.00 0.00 0.00
0.09 0.27 0.30 0.16 0.19 0.04 0.00 0.00 0.00 0.00 0.01 0.00 0.00 0.00 0.00 0.00 0.00 0.00 0.00 0.00 0.00 0.00 0.00 0.00 0.00 0.00 0.00 0.00 0.00 0.00 0.00 0.00 0.00 0.00 0.00 0.00 0.00 0.00 0.00 0.00 0.00 0.00 0.00 0.00
0.03 0.12 0.16 0.17 0.19 0.04 0.00 0.00 0.00 0.00 0.00 0.00 0.00 0.00 0.00 0.00 0.00 0.00 0.00 0.00 0.00 0.00 0.00 0.00 0.00 0.00 0.00 0.00 0.00 0.00 0.00 0.00 0.00 0.00 0.00 0.00 0.00 0.00 0.00 0.00 0.00 0.00 0.00 0.00
0.02 0.01 0.02 0.02 0.03 0.00 0.00 0.00 0.00 0.00 0.00 0.00 0.00 0.00 0.00 0.00 0.00 0.00 0.00 0.00 0.00 0.00 0.00 0.00 0.00 0.00 0.00 0.00 0.00 0.00 0.00 0.00 0.00 0.00 0.00 0.00 0.00 0.00 0.00 0.00 0.00 0.00 0.00 0.00
0.01 0.00 0.00 0.00 0.00 0.00 0.00 0.00 0.00 0.00 0.00 0.00 0.00 0.00 0.00 0.00 0.00 0.00 0.00 0.00 0.01 0.00 0.00 0.00 0.00 0.00 0.00 0.00 0.00 0.00 0.00 0.00 0.00 0.00 0.00 0.00 0.00 0.00 0.00 0.00 0.00 0.00 0.00 0.00
0.02 0.01 0.00 0.00 0.00 0.00 0.00 0.00 0.00 0.00 0.00 0.00 0.00 0.00 0.00 0.00 0.00 0.00 0.00 0.01 0.01 0.00 0.00 0.00 0.00 0.00 0.00 0.00 0.00 0.00 0.00 0.00 0.00 0.00 0.00 0.00 0.00 0.00 0.00 0.00 0.00 0.00 0.02 0.01
0.00 0.00 0.01 0.02 0.01 0.00 0.00 0.00 0.00 0.00 0.00 0.00 0.00 0.00 0.00 0.00 0.00 0.00 0.02 0.02 0.01 0.01 0.01 0.00 0.00 0.00 0.00 0.00 0.00 0.00 0.00 0.00 0.00 0.00 0.00 0.00 0.00 0.00 0.00 0.00 0.00 0.00 0.00 0.00